Multibeam Report for EX1701


Ship Name: Okeanos Explorer
Chief Scientist: Michael White
NOAA/OAR/OER
Source Organization: NOAA Office of Ocean Exploration and Research (OER)
Start Date: 2017-01-18
End Date: 2017-02-10


View ISO Metadata

Visit the full NCEI Bathymetry Viewer


Multibeam Bathymetry

Cruise Details

Project: CAPSTONE Telepresence Mapping in Pacific MPA's
Instrument: Kongsberg EM302

Data Quality

Number of Files: 1349
Number of Records: 414159
BATHYMETRY DATA Quantity Percentage
Number of Beams 178916688 100%
Number of Good Beams 141388253 79.02%
Number of Zero Beams 19580887 10.94%
Number of Flagged Beams 17947548 10.03%
AMPLITUDE DATA Quantity Percentage
Number of Beams 178916688 100%
Number of Good Beams 141388253 79.02%
Number of Zero Beams 19580887 10.94%
Number of Flagged Beams 17947548 10.03%
SIDESCAN DATA Quantity Percentage
Number of Pixels 831135974 100%
Number of Good Pixels 732341522 88.11%
Number of Zero Pixels 0 0%
Number of Flagged Pixels 98794452 11.89%

Navigation Totals

Total Time: 1013.625 hours
Total Track Length: 16524.3251 km
Average Speed: 16.302 km/hr (8.8024 knots)

Cruise Bounds

Northern Extent: 20.798613
Southern Extent: -14.449241
Western Extent: -175.43877
Eastern Extent: -158.05794

Limits

Minimum Sonar Depth 0 Maximum Sonar Depth 6.6636
Minimum Altitude 0 Maximum Altitude 8013.5601
Minimum Depth 108.6535 Maximum Depth 8393.0244
Minimum Amplitude 0 Maximum Amplitude 102
Minimum Sidescan 0 Maximum Sidescan 33791

File Information

Full Resolution Bathymetry as collected (raw): 656

Files File Size Description
0000_20170121_000300_EX1701_MB.all.mb58.gz 67.75MB Kongsberg multibeam vendor format
0001_20170121_010304_EX1701_MB.all.mb58.gz 67.65MB Kongsberg multibeam vendor format
0002_20170121_020305_EX1701_MB.all.mb58.gz 66.39MB Kongsberg multibeam vendor format
0003_20170121_030304_EX1701_MB.all.mb58.gz 67.74MB Kongsberg multibeam vendor format
0004_20170121_040307_EX1701_MB.all.mb58.gz 33.98MB Kongsberg multibeam vendor format
0005_20170121_043321_EX1701_MB.all.mb58.gz 63.52MB Kongsberg multibeam vendor format
0006_20170121_052958_EX1701_MB.all.mb58.gz 67.52MB Kongsberg multibeam vendor format
0007_20170121_062957_EX1701_MB.all.mb58.gz 67.45MB Kongsberg multibeam vendor format
0008_20170121_072956_EX1701_MB.all.mb58.gz 67.68MB Kongsberg multibeam vendor format
0009_20170121_083000_EX1701_MB.all.mb58.gz 67.74MB Kongsberg multibeam vendor format
0010_20170121_093000_EX1701_MB.all.mb58.gz 67.62MB Kongsberg multibeam vendor format
0011_20170121_103001_EX1701_MB.all.mb58.gz 68.90MB Kongsberg multibeam vendor format
0012_20170121_113001_EX1701_MB.all.mb58.gz 67.64MB Kongsberg multibeam vendor format
0013_20170121_123000_EX1701_MB.all.mb58.gz 67.50MB Kongsberg multibeam vendor format
0014_20170121_132959_EX1701_MB.all.mb58.gz 67.37MB Kongsberg multibeam vendor format
0015_20170121_142959_EX1701_MB.all.mb58.gz 67.58MB Kongsberg multibeam vendor format
0016_20170121_153001_EX1701_MB.all.mb58.gz 66.50MB Kongsberg multibeam vendor format
0017_20170121_162956_EX1701_MB.all.mb58.gz 66.75MB Kongsberg multibeam vendor format
0018_20170121_172956_EX1701_MB.all.mb58.gz 66.60MB Kongsberg multibeam vendor format
0019_20170121_182955_EX1701_MB.all.mb58.gz 66.68MB Kongsberg multibeam vendor format
0020_20170121_193000_EX1701_MB.all.mb58.gz 66.14MB Kongsberg multibeam vendor format
0021_20170121_202958_EX1701_MB.all.mb58.gz 66.03MB Kongsberg multibeam vendor format
0022_20170121_212957_EX1701_MB.all.mb58.gz 65.63MB Kongsberg multibeam vendor format
0023_20170121_223002_EX1701_MB.all.mb58.gz 65.47MB Kongsberg multibeam vendor format
0024_20170121_233001_EX1701_MB.all.mb58.gz 65.77MB Kongsberg multibeam vendor format
0025_20170122_003001_EX1701_MB.all.mb58.gz 65.31MB Kongsberg multibeam vendor format
0026_20170122_012954_EX1701_MB.all.mb58.gz 8.35MB Kongsberg multibeam vendor format
0027_20170122_013732_EX1701_MB.all.mb58.gz 65.46MB Kongsberg multibeam vendor format
0028_20170122_023731_EX1701_MB.all.mb58.gz 65.69MB Kongsberg multibeam vendor format
0029_20170122_033727_EX1701_MB.all.mb58.gz 65.41MB Kongsberg multibeam vendor format
0030_20170122_043725_EX1701_MB.all.mb58.gz 65.81MB Kongsberg multibeam vendor format
0031_20170122_053724_EX1701_MB.all.mb58.gz 65.75MB Kongsberg multibeam vendor format
0032_20170122_063731_EX1701_MB.all.mb58.gz 65.68MB Kongsberg multibeam vendor format
0033_20170122_073727_EX1701_MB.all.mb58.gz 65.31MB Kongsberg multibeam vendor format
0034_20170122_083724_EX1701_MB.all.mb58.gz 65.46MB Kongsberg multibeam vendor format
0035_20170122_093726_EX1701_MB.all.mb58.gz 65.15MB Kongsberg multibeam vendor format
0036_20170122_103730_EX1701_MB.all.mb58.gz 65.23MB Kongsberg multibeam vendor format
0037_20170122_113725_EX1701_MB.all.mb58.gz 64.62MB Kongsberg multibeam vendor format
0038_20170122_123730_EX1701_MB.all.mb58.gz 63.96MB Kongsberg multibeam vendor format
0039_20170122_133729_EX1701_MB.all.mb58.gz 65.15MB Kongsberg multibeam vendor format
0040_20170122_143727_EX1701_MB.all.mb58.gz 64.86MB Kongsberg multibeam vendor format
0041_20170122_153727_EX1701_MB.all.mb58.gz 65.41MB Kongsberg multibeam vendor format
0042_20170122_163731_EX1701_MB.all.mb58.gz 64.80MB Kongsberg multibeam vendor format
0043_20170122_173730_EX1701_MB.all.mb58.gz 63.53MB Kongsberg multibeam vendor format
0044_20170122_183731_EX1701_MB.all.mb58.gz 63.90MB Kongsberg multibeam vendor format
0045_20170122_193726_EX1701_MB.all.mb58.gz 64.75MB Kongsberg multibeam vendor format
0046_20170122_203724_EX1701_MB.all.mb58.gz 65.50MB Kongsberg multibeam vendor format
0047_20170122_213737_EX1701_MB.all.mb58.gz 65.15MB Kongsberg multibeam vendor format
0048_20170122_223727_EX1701_MB.all.mb58.gz 65.28MB Kongsberg multibeam vendor format
0049_20170122_233734_EX1701_MB.all.mb58.gz 65.22MB Kongsberg multibeam vendor format
0050_20170123_003731_EX1701_MB.all.mb58.gz 65.09MB Kongsberg multibeam vendor format
0051_20170123_013730_EX1701_MB.all.mb58.gz 12.15MB Kongsberg multibeam vendor format
0052_20170123_014838_EX1701_MB.all.mb58.gz 65.22MB Kongsberg multibeam vendor format
0053_20170123_024836_EX1701_MB.all.mb58.gz 64.75MB Kongsberg multibeam vendor format
0054_20170123_034840_EX1701_MB.all.mb58.gz 64.78MB Kongsberg multibeam vendor format
0055_20170123_044839_EX1701_MB.all.mb58.gz 64.56MB Kongsberg multibeam vendor format
0056_20170123_054839_EX1701_MB.all.mb58.gz 64.47MB Kongsberg multibeam vendor format
0057_20170123_064837_EX1701_MB.all.mb58.gz 65.02MB Kongsberg multibeam vendor format
0058_20170123_074845_EX1701_MB.all.mb58.gz 64.20MB Kongsberg multibeam vendor format
0059_20170123_084836_EX1701_MB.all.mb58.gz 65.52MB Kongsberg multibeam vendor format
0060_20170123_094841_EX1701_MB.all.mb58.gz 65.20MB Kongsberg multibeam vendor format
0061_20170123_104843_EX1701_MB.all.mb58.gz 63.70MB Kongsberg multibeam vendor format
0062_20170123_114838_EX1701_MB.all.mb58.gz 70.14MB Kongsberg multibeam vendor format
0063_20170123_124842_EX1701_MB.all.mb58.gz 66.06MB Kongsberg multibeam vendor format
0064_20170123_134844_EX1701_MB.all.mb58.gz 64.93MB Kongsberg multibeam vendor format
0065_20170123_144843_EX1701_MB.all.mb58.gz 64.99MB Kongsberg multibeam vendor format
0066_20170123_154845_EX1701_MB.all.mb58.gz 64.54MB Kongsberg multibeam vendor format
0067_20170123_164837_EX1701_MB.all.mb58.gz 65.26MB Kongsberg multibeam vendor format
0068_20170123_174841_EX1701_MB.all.mb58.gz 65.44MB Kongsberg multibeam vendor format
0069_20170123_184844_EX1701_MB.all.mb58.gz 65.58MB Kongsberg multibeam vendor format
0070_20170123_194841_EX1701_MB.all.mb58.gz 65.08MB Kongsberg multibeam vendor format
0071_20170123_204841_EX1701_MB.all.mb58.gz 64.97MB Kongsberg multibeam vendor format
0072_20170123_214846_EX1701_MB.all.mb58.gz 65.57MB Kongsberg multibeam vendor format
0073_20170123_224839_EX1701_MB.all.mb58.gz 65.92MB Kongsberg multibeam vendor format
0074_20170123_234844_EX1701_MB.all.mb58.gz 16.66MB Kongsberg multibeam vendor format
0075_20170124_000353_EX1701_MB.all.mb58.gz 65.65MB Kongsberg multibeam vendor format
0076_20170124_010356_EX1701_MB.all.mb58.gz 65.46MB Kongsberg multibeam vendor format
0077_20170124_020347_EX1701_MB.all.mb58.gz 34.91MB Kongsberg multibeam vendor format
0078_20170124_023514_EX1701_MB.all.mb58.gz 2.87MB Kongsberg multibeam vendor format
0079_20170124_023750_EX1701_MB.all.mb58.gz 66.15MB Kongsberg multibeam vendor format
0080_20170124_033753_EX1701_MB.all.mb58.gz 14.67MB Kongsberg multibeam vendor format
0081_20170124_035119_EX1701_MB.all.mb58.gz 23.50MB Kongsberg multibeam vendor format
0082_20170124_041239_EX1701_MB.all.mb58.gz 59.78MB Kongsberg multibeam vendor format
0083_20170124_050651_EX1701_MB.all.mb58.gz 28.87MB Kongsberg multibeam vendor format
0084_20170124_053210_EX1701_MB.all.mb58.gz 67.55MB Kongsberg multibeam vendor format
0085_20170124_063215_EX1701_MB.all.mb58.gz 7.24MB Kongsberg multibeam vendor format
0086_20170124_063844_EX1701_MB.all.mb58.gz 24.32MB Kongsberg multibeam vendor format
0087_20170124_070021_EX1701_MB.all.mb58.gz 71.01MB Kongsberg multibeam vendor format
0088_20170124_080017_EX1701_MB.all.mb58.gz 12.86MB Kongsberg multibeam vendor format
0089_20170124_081128_EX1701_MB.all.mb58.gz 26.48MB Kongsberg multibeam vendor format
0090_20170124_083448_EX1701_MB.all.mb58.gz 68.84MB Kongsberg multibeam vendor format
0091_20170124_093447_EX1701_MB.all.mb58.gz 12.67MB Kongsberg multibeam vendor format
0093_20170124_094528_EX1701_MB.all.mb58.gz 31.73MB Kongsberg multibeam vendor format
0094_20170124_101234_EX1701_MB.all.mb58.gz 66.81MB Kongsberg multibeam vendor format
0095_20170124_111236_EX1701_MB.all.mb58.gz 66.18MB Kongsberg multibeam vendor format
0096_20170124_121239_EX1701_MB.all.mb58.gz 65.91MB Kongsberg multibeam vendor format
0097_20170124_131243_EX1701_MB.all.mb58.gz 65.60MB Kongsberg multibeam vendor format
0098_20170124_141238_EX1701_MB.all.mb58.gz 65.82MB Kongsberg multibeam vendor format
0099_20170124_151235_EX1701_MB.all.mb58.gz 65.48MB Kongsberg multibeam vendor format
0100_20170124_161235_EX1701_MB.all.mb58.gz 65.87MB Kongsberg multibeam vendor format
0101_20170124_171236_EX1701_MB.all.mb58.gz 65.35MB Kongsberg multibeam vendor format
0102_20170124_181232_EX1701_MB.all.mb58.gz 66.29MB Kongsberg multibeam vendor format
0103_20170124_191236_EX1701_MB.all.mb58.gz 66.56MB Kongsberg multibeam vendor format
0104_20170124_201239_EX1701_MB.all.mb58.gz 65.86MB Kongsberg multibeam vendor format
0105_20170124_211236_EX1701_MB.all.mb58.gz 66.60MB Kongsberg multibeam vendor format
0106_20170124_221247_EX1701_MB.all.mb58.gz 23.15MB Kongsberg multibeam vendor format
0107_20170124_223349_EX1701_MB.all.mb58.gz 66.47MB Kongsberg multibeam vendor format
0109_20170124_233345_EX1701_MB.all.mb58.gz 71.01MB Kongsberg multibeam vendor format
0110_20170125_003343_EX1701_MB.all.mb58.gz 13.58MB Kongsberg multibeam vendor format
0111_20170125_004453_EX1701_MB.all.mb58.gz 69.03MB Kongsberg multibeam vendor format
0112_20170125_014455_EX1701_MB.all.mb58.gz 22.50MB Kongsberg multibeam vendor format
0113_20170125_020443_EX1701_MB.all.mb58.gz 45.09MB Kongsberg multibeam vendor format
0114_20170125_024426_EX1701_MB.all.mb58.gz 70.11MB Kongsberg multibeam vendor format
0115_20170125_034423_EX1701_MB.all.mb58.gz 69.83MB Kongsberg multibeam vendor format
0116_20170125_044421_EX1701_MB.all.mb58.gz 22.60MB Kongsberg multibeam vendor format
0117_20170125_050443_EX1701_MB.all.mb58.gz 2.77MB Kongsberg multibeam vendor format
0118_20170125_050713_EX1701_MB.all.mb58.gz 69.89MB Kongsberg multibeam vendor format
0119_20170125_060706_EX1701_MB.all.mb58.gz 38.80MB Kongsberg multibeam vendor format
0120_20170125_064051_EX1701_MB.all.mb58.gz 23.18MB Kongsberg multibeam vendor format
0121_20170125_070123_EX1701_MB.all.mb58.gz 2.38MB Kongsberg multibeam vendor format
0122_20170125_070329_EX1701_MB.all.mb58.gz 69.72MB Kongsberg multibeam vendor format
0123_20170125_080330_EX1701_MB.all.mb58.gz 45.28MB Kongsberg multibeam vendor format
0124_20170125_084238_EX1701_MB.all.mb58.gz 22.91MB Kongsberg multibeam vendor format
0125_20170125_090352_EX1701_MB.all.mb58.gz 67.51MB Kongsberg multibeam vendor format
0126_20170125_100345_EX1701_MB.all.mb58.gz 40.98MB Kongsberg multibeam vendor format
0127_20170125_104044_EX1701_MB.all.mb58.gz 26.90MB Kongsberg multibeam vendor format
0128_20170125_110415_EX1701_MB.all.mb58.gz 67.32MB Kongsberg multibeam vendor format
0129_20170125_120414_EX1701_MB.all.mb58.gz 49.38MB Kongsberg multibeam vendor format
0130_20170125_124743_EX1701_MB.all.mb58.gz 26.86MB Kongsberg multibeam vendor format
0131_20170125_131142_EX1701_MB.all.mb58.gz 66.49MB Kongsberg multibeam vendor format
0132_20170125_141139_EX1701_MB.all.mb58.gz 2.51MB Kongsberg multibeam vendor format
0133_20170125_141351_EX1701_MB.all.mb58.gz 3.44MB Kongsberg multibeam vendor format
0134_20170125_141654_EX1701_MB.all.mb58.gz 68.79MB Kongsberg multibeam vendor format
0135_20170125_151656_EX1701_MB.all.mb58.gz 69.95MB Kongsberg multibeam vendor format
0136_20170125_161658_EX1701_MB.all.mb58.gz 71.87MB Kongsberg multibeam vendor format
0137_20170125_171659_EX1701_MB.all.mb58.gz 73.21MB Kongsberg multibeam vendor format
0138_20170125_181700_EX1701_MB.all.mb58.gz 71.01MB Kongsberg multibeam vendor format
0139_20170125_191657_EX1701_MB.all.mb58.gz 70.60MB Kongsberg multibeam vendor format
0140_20170125_201700_EX1701_MB.all.mb58.gz 70.70MB Kongsberg multibeam vendor format
0141_20170125_211655_EX1701_MB.all.mb58.gz 70.67MB Kongsberg multibeam vendor format
0142_20170125_221657_EX1701_MB.all.mb58.gz 70.57MB Kongsberg multibeam vendor format
0143_20170125_231658_EX1701_MB.all.mb58.gz 71.37MB Kongsberg multibeam vendor format
0144_20170126_001656_EX1701_MB.all.mb58.gz 7.22MB Kongsberg multibeam vendor format
0145_20170126_060800_EX1701_MB.all.mb58.gz 65.74MB Kongsberg multibeam vendor format
0146_20170126_070758_EX1701_MB.all.mb58.gz 67.08MB Kongsberg multibeam vendor format
0147_20170126_080759_EX1701_MB.all.mb58.gz 67.06MB Kongsberg multibeam vendor format
0148_20170126_090800_EX1701_MB.all.mb58.gz 66.85MB Kongsberg multibeam vendor format
0149_20170126_100755_EX1701_MB.all.mb58.gz 67.08MB Kongsberg multibeam vendor format
0150_20170126_110809_EX1701_MB.all.mb58.gz 66.60MB Kongsberg multibeam vendor format
0151_20170126_120759_EX1701_MB.all.mb58.gz 66.70MB Kongsberg multibeam vendor format
0152_20170126_130754_EX1701_MB.all.mb58.gz 66.91MB Kongsberg multibeam vendor format
0153_20170126_140802_EX1701_MB.all.mb58.gz 66.77MB Kongsberg multibeam vendor format
0154_20170126_150802_EX1701_MB.all.mb58.gz 66.76MB Kongsberg multibeam vendor format
0155_20170126_160801_EX1701_MB.all.mb58.gz 66.78MB Kongsberg multibeam vendor format
0156_20170126_170800_EX1701_MB.all.mb58.gz 66.05MB Kongsberg multibeam vendor format
0157_20170126_180757_EX1701_MB.all.mb58.gz 65.98MB Kongsberg multibeam vendor format
0158_20170126_190801_EX1701_MB.all.mb58.gz 65.97MB Kongsberg multibeam vendor format
0159_20170126_200801_EX1701_MB.all.mb58.gz 65.88MB Kongsberg multibeam vendor format
0160_20170126_210801_EX1701_MB.all.mb58.gz 65.92MB Kongsberg multibeam vendor format
0161_20170126_220803_EX1701_MB.all.mb58.gz 65.87MB Kongsberg multibeam vendor format
0162_20170126_230754_EX1701_MB.all.mb58.gz 66.30MB Kongsberg multibeam vendor format
0163_20170127_000802_EX1701_MB.all.mb58.gz 40.03MB Kongsberg multibeam vendor format
0164_20170127_004435_EX1701_MB.all.mb58.gz 21.74MB Kongsberg multibeam vendor format
0165_20170127_010435_EX1701_MB.all.mb58.gz 66.41MB Kongsberg multibeam vendor format
0166_20170127_020433_EX1701_MB.all.mb58.gz 34.54MB Kongsberg multibeam vendor format
0167_20170127_023611_EX1701_MB.all.mb58.gz 21.21MB Kongsberg multibeam vendor format
0168_20170127_025533_EX1701_MB.all.mb58.gz 66.75MB Kongsberg multibeam vendor format
0169_20170127_035535_EX1701_MB.all.mb58.gz 35.44MB Kongsberg multibeam vendor format
0170_20170127_042735_EX1701_MB.all.mb58.gz 23.44MB Kongsberg multibeam vendor format
0171_20170127_044909_EX1701_MB.all.mb58.gz 68.04MB Kongsberg multibeam vendor format
0172_20170127_054919_EX1701_MB.all.mb58.gz 38.36MB Kongsberg multibeam vendor format
0173_20170127_062349_EX1701_MB.all.mb58.gz 22.23MB Kongsberg multibeam vendor format
0174_20170127_064419_EX1701_MB.all.mb58.gz 66.35MB Kongsberg multibeam vendor format
0175_20170127_074434_EX1701_MB.all.mb58.gz 29.96MB Kongsberg multibeam vendor format
0176_20170127_081139_EX1701_MB.all.mb58.gz 21.84MB Kongsberg multibeam vendor format
0177_20170127_083143_EX1701_MB.all.mb58.gz 65.45MB Kongsberg multibeam vendor format
0178_20170127_093136_EX1701_MB.all.mb58.gz 29.47MB Kongsberg multibeam vendor format
0179_20170127_095834_EX1701_MB.all.mb58.gz 5.56MB Kongsberg multibeam vendor format
0180_20170127_100338_EX1701_MB.all.mb58.gz 49.38MB Kongsberg multibeam vendor format
0181_20170127_111254_EX1701_MB.all.mb58.gz 65.95MB Kongsberg multibeam vendor format
0182_20170127_121259_EX1701_MB.all.mb58.gz 65.79MB Kongsberg multibeam vendor format
0183_20170127_131254_EX1701_MB.all.mb58.gz 66.20MB Kongsberg multibeam vendor format
0184_20170127_141259_EX1701_MB.all.mb58.gz 66.15MB Kongsberg multibeam vendor format
0185_20170127_151259_EX1701_MB.all.mb58.gz 66.13MB Kongsberg multibeam vendor format
0186_20170127_161259_EX1701_MB.all.mb58.gz 66.04MB Kongsberg multibeam vendor format
0187_20170127_171255_EX1701_MB.all.mb58.gz 66.09MB Kongsberg multibeam vendor format
0188_20170127_181300_EX1701_MB.all.mb58.gz 57.30MB Kongsberg multibeam vendor format
0189_20170127_190504_EX1701_MB.all.mb58.gz 43.20MB Kongsberg multibeam vendor format
0190_20170127_194406_EX1701_MB.all.mb58.gz 66.58MB Kongsberg multibeam vendor format
0191_20170127_204359_EX1701_MB.all.mb58.gz 52.84MB Kongsberg multibeam vendor format
0192_20170127_213123_EX1701_MB.all.mb58.gz 21.23MB Kongsberg multibeam vendor format
0193_20170127_215018_EX1701_MB.all.mb58.gz 18.84MB Kongsberg multibeam vendor format
0194_20170127_220708_EX1701_MB.all.mb58.gz 68.05MB Kongsberg multibeam vendor format
0195_20170127_230708_EX1701_MB.all.mb58.gz 33.29MB Kongsberg multibeam vendor format
0196_20170127_233703_EX1701_MB.all.mb58.gz 23.81MB Kongsberg multibeam vendor format
0197_20170127_235822_EX1701_MB.all.mb58.gz 68.90MB Kongsberg multibeam vendor format
0198_20170128_005820_EX1701_MB.all.mb58.gz 52.30MB Kongsberg multibeam vendor format
0199_20170128_014404_EX1701_MB.all.mb58.gz 19.75MB Kongsberg multibeam vendor format
0200_20170128_020146_EX1701_MB.all.mb58.gz 67.77MB Kongsberg multibeam vendor format
0201_20170128_030143_EX1701_MB.all.mb58.gz 51.41MB Kongsberg multibeam vendor format
0202_20170128_034656_EX1701_MB.all.mb58.gz 26.17MB Kongsberg multibeam vendor format
0203_20170128_041034_EX1701_MB.all.mb58.gz 17.46MB Kongsberg multibeam vendor format
0204_20170128_042620_EX1701_MB.all.mb58.gz 67.17MB Kongsberg multibeam vendor format
0205_20170128_052616_EX1701_MB.all.mb58.gz 36.88MB Kongsberg multibeam vendor format
0206_20170128_055907_EX1701_MB.all.mb58.gz 18.56MB Kongsberg multibeam vendor format
0207_20170128_061556_EX1701_MB.all.mb58.gz 65.89MB Kongsberg multibeam vendor format
0208_20170128_071600_EX1701_MB.all.mb58.gz 31.18MB Kongsberg multibeam vendor format
0209_20170128_074430_EX1701_MB.all.mb58.gz 65.96MB Kongsberg multibeam vendor format
0210_20170128_084429_EX1701_MB.all.mb58.gz 66.14MB Kongsberg multibeam vendor format
0211_20170128_094427_EX1701_MB.all.mb58.gz 65.76MB Kongsberg multibeam vendor format
0212_20170128_104428_EX1701_MB.all.mb58.gz 67.32MB Kongsberg multibeam vendor format
0213_20170128_114427_EX1701_MB.all.mb58.gz 67.33MB Kongsberg multibeam vendor format
0214_20170128_124428_EX1701_MB.all.mb58.gz 66.50MB Kongsberg multibeam vendor format
0215_20170128_134430_EX1701_MB.all.mb58.gz 18.78MB Kongsberg multibeam vendor format
0216_20170128_140134_EX1701_MB.all.mb58.gz 65.85MB Kongsberg multibeam vendor format
0217_20170128_150139_EX1701_MB.all.mb58.gz 43.47MB Kongsberg multibeam vendor format
0218_20170128_154058_EX1701_MB.all.mb58.gz 23.96MB Kongsberg multibeam vendor format
0219_20170128_160253_EX1701_MB.all.mb58.gz 66.71MB Kongsberg multibeam vendor format
0220_20170128_170250_EX1701_MB.all.mb58.gz 48.00MB Kongsberg multibeam vendor format
0221_20170128_174542_EX1701_MB.all.mb58.gz 20.72MB Kongsberg multibeam vendor format
0222_20170128_180423_EX1701_MB.all.mb58.gz 68.13MB Kongsberg multibeam vendor format
0223_20170128_190416_EX1701_MB.all.mb58.gz 47.81MB Kongsberg multibeam vendor format
0224_20170128_194638_EX1701_MB.all.mb58.gz 20.49MB Kongsberg multibeam vendor format
0225_20170128_200503_EX1701_MB.all.mb58.gz 69.03MB Kongsberg multibeam vendor format
0226_20170128_210458_EX1701_MB.all.mb58.gz 48.90MB Kongsberg multibeam vendor format
0227_20170128_214847_EX1701_MB.all.mb58.gz 21.12MB Kongsberg multibeam vendor format
0228_20170128_220747_EX1701_MB.all.mb58.gz 67.24MB Kongsberg multibeam vendor format
0229_20170128_230753_EX1701_MB.all.mb58.gz 45.41MB Kongsberg multibeam vendor format
0230_20170128_234828_EX1701_MB.all.mb58.gz 66.44MB Kongsberg multibeam vendor format
0231_20170129_004821_EX1701_MB.all.mb58.gz 66.31MB Kongsberg multibeam vendor format
0232_20170129_014820_EX1701_MB.all.mb58.gz 26.12MB Kongsberg multibeam vendor format
0233_20170129_021202_EX1701_MB.all.mb58.gz 66.50MB Kongsberg multibeam vendor format
0234_20170129_031158_EX1701_MB.all.mb58.gz 48.10MB Kongsberg multibeam vendor format
0235_20170129_035535_EX1701_MB.all.mb58.gz 24.00MB Kongsberg multibeam vendor format
0236_20170129_041710_EX1701_MB.all.mb58.gz 66.33MB Kongsberg multibeam vendor format
0237_20170129_051714_EX1701_MB.all.mb58.gz 61.87MB Kongsberg multibeam vendor format
0238_20170129_061230_EX1701_MB.all.mb58.gz 12.86MB Kongsberg multibeam vendor format
0239_20170129_062411_EX1701_MB.all.mb58.gz 4.93MB Kongsberg multibeam vendor format
0240_20170129_062838_EX1701_MB.all.mb58.gz 67.76MB Kongsberg multibeam vendor format
0241_20170129_072834_EX1701_MB.all.mb58.gz 67.14MB Kongsberg multibeam vendor format
0242_20170129_082830_EX1701_MB.all.mb58.gz 16.90MB Kongsberg multibeam vendor format
0243_20170129_084342_EX1701_MB.all.mb58.gz 68.87MB Kongsberg multibeam vendor format
0244_20170129_094335_EX1701_MB.all.mb58.gz 69.54MB Kongsberg multibeam vendor format
0245_20170129_104339_EX1701_MB.all.mb58.gz 7.18MB Kongsberg multibeam vendor format
0246_20170129_105002_EX1701_MB.all.mb58.gz 17.42MB Kongsberg multibeam vendor format
0247_20170129_110557_EX1701_MB.all.mb58.gz 66.30MB Kongsberg multibeam vendor format
0248_20170129_120554_EX1701_MB.all.mb58.gz 68.00MB Kongsberg multibeam vendor format
0249_20170129_130556_EX1701_MB.all.mb58.gz 17.54MB Kongsberg multibeam vendor format
0250_20170129_132134_EX1701_MB.all.mb58.gz 8.03MB Kongsberg multibeam vendor format
0251_20170129_132848_EX1701_MB.all.mb58.gz 53.98MB Kongsberg multibeam vendor format
0252_20170129_141734_EX1701_MB.all.mb58.gz 5.30MB Kongsberg multibeam vendor format
0253_20170129_142223_EX1701_MB.all.mb58.gz 67.11MB Kongsberg multibeam vendor format
0254_20170129_152225_EX1701_MB.all.mb58.gz 66.89MB Kongsberg multibeam vendor format
0255_20170129_162222_EX1701_MB.all.mb58.gz 67.11MB Kongsberg multibeam vendor format
0256_20170129_172222_EX1701_MB.all.mb58.gz 67.26MB Kongsberg multibeam vendor format
0257_20170129_182220_EX1701_MB.all.mb58.gz 68.21MB Kongsberg multibeam vendor format
0258_20170129_192219_EX1701_MB.all.mb58.gz 67.53MB Kongsberg multibeam vendor format
0259_20170129_202222_EX1701_MB.all.mb58.gz 55.87MB Kongsberg multibeam vendor format
0260_20170129_211038_EX1701_MB.all.mb58.gz 68.36MB Kongsberg multibeam vendor format
0261_20170129_221032_EX1701_MB.all.mb58.gz 67.55MB Kongsberg multibeam vendor format
0262_20170129_231036_EX1701_MB.all.mb58.gz 68.25MB Kongsberg multibeam vendor format
0263_20170130_001036_EX1701_MB.all.mb58.gz 69.60MB Kongsberg multibeam vendor format
0264_20170130_011035_EX1701_MB.all.mb58.gz 66.93MB Kongsberg multibeam vendor format
0265_20170130_021032_EX1701_MB.all.mb58.gz 66.57MB Kongsberg multibeam vendor format
0266_20170130_031036_EX1701_MB.all.mb58.gz 67.33MB Kongsberg multibeam vendor format
0267_20170130_041032_EX1701_MB.all.mb58.gz 70.33MB Kongsberg multibeam vendor format
0268_20170130_051035_EX1701_MB.all.mb58.gz 69.36MB Kongsberg multibeam vendor format
0269_20170130_061032_EX1701_MB.all.mb58.gz 70.38MB Kongsberg multibeam vendor format
0270_20170130_071035_EX1701_MB.all.mb58.gz 69.30MB Kongsberg multibeam vendor format
0271_20170130_081034_EX1701_MB.all.mb58.gz 68.74MB Kongsberg multibeam vendor format
0272_20170130_091037_EX1701_MB.all.mb58.gz 70.68MB Kongsberg multibeam vendor format
0273_20170130_101035_EX1701_MB.all.mb58.gz 69.84MB Kongsberg multibeam vendor format
0274_20170130_111039_EX1701_MB.all.mb58.gz 67.47MB Kongsberg multibeam vendor format
0275_20170130_121038_EX1701_MB.all.mb58.gz 67.48MB Kongsberg multibeam vendor format
0276_20170130_131032_EX1701_MB.all.mb58.gz 66.67MB Kongsberg multibeam vendor format
0277_20170130_141034_EX1701_MB.all.mb58.gz 66.32MB Kongsberg multibeam vendor format
0278_20170130_151036_EX1701_MB.all.mb58.gz 65.93MB Kongsberg multibeam vendor format
0279_20170130_161033_EX1701_MB.all.mb58.gz 66.73MB Kongsberg multibeam vendor format
0280_20170130_171033_EX1701_MB.all.mb58.gz 67.38MB Kongsberg multibeam vendor format
0281_20170130_181035_EX1701_MB.all.mb58.gz 66.73MB Kongsberg multibeam vendor format
0282_20170130_191040_EX1701_MB.all.mb58.gz 65.77MB Kongsberg multibeam vendor format
0283_20170130_201041_EX1701_MB.all.mb58.gz 65.98MB Kongsberg multibeam vendor format
0284_20170130_211042_EX1701_MB.all.mb58.gz 59.95MB Kongsberg multibeam vendor format
0285_20170130_220517_EX1701_MB.all.mb58.gz 65.86MB Kongsberg multibeam vendor format
0286_20170130_230516_EX1701_MB.all.mb58.gz 65.82MB Kongsberg multibeam vendor format
0287_20170131_000526_EX1701_MB.all.mb58.gz 65.65MB Kongsberg multibeam vendor format
0288_20170131_010519_EX1701_MB.all.mb58.gz 26.55MB Kongsberg multibeam vendor format
0289_20170131_012939_EX1701_MB.all.mb58.gz 56.45MB Kongsberg multibeam vendor format
0290_20170131_022019_EX1701_MB.all.mb58.gz 67.48MB Kongsberg multibeam vendor format
0291_20170131_032015_EX1701_MB.all.mb58.gz 18.64MB Kongsberg multibeam vendor format
0292_20170131_033648_EX1701_MB.all.mb58.gz 67.85MB Kongsberg multibeam vendor format
0293_20170131_043653_EX1701_MB.all.mb58.gz 68.01MB Kongsberg multibeam vendor format
0294_20170131_053651_EX1701_MB.all.mb58.gz 67.71MB Kongsberg multibeam vendor format
0295_20170131_063652_EX1701_MB.all.mb58.gz 66.83MB Kongsberg multibeam vendor format
0296_20170131_073652_EX1701_MB.all.mb58.gz 66.33MB Kongsberg multibeam vendor format
0297_20170131_083652_EX1701_MB.all.mb58.gz 66.11MB Kongsberg multibeam vendor format
0298_20170131_093653_EX1701_MB.all.mb58.gz 65.69MB Kongsberg multibeam vendor format
0299_20170131_103653_EX1701_MB.all.mb58.gz 65.41MB Kongsberg multibeam vendor format
0300_20170131_113649_EX1701_MB.all.mb58.gz 65.59MB Kongsberg multibeam vendor format
0301_20170131_123653_EX1701_MB.all.mb58.gz 47.13MB Kongsberg multibeam vendor format
0302_20170131_132026_EX1701_MB.all.mb58.gz 62.35MB Kongsberg multibeam vendor format
0303_20170131_142021_EX1701_MB.all.mb58.gz 53.45MB Kongsberg multibeam vendor format
0304_20170131_151024_EX1701_MB.all.mb58.gz 65.04MB Kongsberg multibeam vendor format
0305_20170131_161023_EX1701_MB.all.mb58.gz 64.92MB Kongsberg multibeam vendor format
0306_20170131_171017_EX1701_MB.all.mb58.gz 65.59MB Kongsberg multibeam vendor format
0307_20170131_181023_EX1701_MB.all.mb58.gz 65.37MB Kongsberg multibeam vendor format
0308_20170131_191024_EX1701_MB.all.mb58.gz 65.54MB Kongsberg multibeam vendor format
0309_20170131_201019_EX1701_MB.all.mb58.gz 65.87MB Kongsberg multibeam vendor format
0310_20170131_211024_EX1701_MB.all.mb58.gz 65.87MB Kongsberg multibeam vendor format
0311_20170131_221018_EX1701_MB.all.mb58.gz 46.17MB Kongsberg multibeam vendor format
0312_20170131_225208_EX1701_MB.all.mb58.gz 65.21MB Kongsberg multibeam vendor format
0313_20170131_235213_EX1701_MB.all.mb58.gz 65.02MB Kongsberg multibeam vendor format
0314_20170201_005206_EX1701_MB.all.mb58.gz 65.14MB Kongsberg multibeam vendor format
0315_20170201_015213_EX1701_MB.all.mb58.gz 66.01MB Kongsberg multibeam vendor format
0316_20170201_025209_EX1701_MB.all.mb58.gz 66.10MB Kongsberg multibeam vendor format
0317_20170201_035210_EX1701_MB.all.mb58.gz 66.28MB Kongsberg multibeam vendor format
0318_20170201_045214_EX1701_MB.all.mb58.gz 65.92MB Kongsberg multibeam vendor format
0319_20170201_055213_EX1701_MB.all.mb58.gz 65.91MB Kongsberg multibeam vendor format
0320_20170201_065212_EX1701_MB.all.mb58.gz 65.89MB Kongsberg multibeam vendor format
0321_20170201_075211_EX1701_MB.all.mb58.gz 23.05MB Kongsberg multibeam vendor format
0322_20170201_081315_EX1701_MB.all.mb58.gz 3.91MB Kongsberg multibeam vendor format
0323_20170201_081649_EX1701_MB.all.mb58.gz 66.76MB Kongsberg multibeam vendor format
0324_20170201_091645_EX1701_MB.all.mb58.gz 66.89MB Kongsberg multibeam vendor format
0325_20170201_101650_EX1701_MB.all.mb58.gz 65.76MB Kongsberg multibeam vendor format
0326_20170201_111645_EX1701_MB.all.mb58.gz 65.78MB Kongsberg multibeam vendor format
0327_20170201_121647_EX1701_MB.all.mb58.gz 65.92MB Kongsberg multibeam vendor format
0328_20170201_131651_EX1701_MB.all.mb58.gz 65.81MB Kongsberg multibeam vendor format
0329_20170201_141650_EX1701_MB.all.mb58.gz 66.29MB Kongsberg multibeam vendor format
0330_20170201_151651_EX1701_MB.all.mb58.gz 31.53MB Kongsberg multibeam vendor format
0331_20170201_154512_EX1701_MB.all.mb58.gz 67.90MB Kongsberg multibeam vendor format
0332_20170201_164510_EX1701_MB.all.mb58.gz 27.04MB Kongsberg multibeam vendor format
0333_20170201_170836_EX1701_MB.all.mb58.gz 42.34MB Kongsberg multibeam vendor format
0334_20170201_174542_EX1701_MB.all.mb58.gz 38.34MB Kongsberg multibeam vendor format
0335_20170201_181927_EX1701_MB.all.mb58.gz 5.16MB Kongsberg multibeam vendor format
0336_20170201_204510_EX1701_MB.all.mb58.gz 65.08MB Kongsberg multibeam vendor format
0338_20170201_221603_EX1701_MB.all.mb58.gz 72.02MB Kongsberg multibeam vendor format
0339_20170201_231603_EX1701_MB.all.mb58.gz 72.99MB Kongsberg multibeam vendor format
0340_20170202_001603_EX1701_MB.all.mb58.gz 1.30MB Kongsberg multibeam vendor format
0341_20170202_001708_EX1701_MB.all.mb58.gz 71.68MB Kongsberg multibeam vendor format
0342_20170202_011712_EX1701_MB.all.mb58.gz 69.75MB Kongsberg multibeam vendor format
0343_20170202_021711_EX1701_MB.all.mb58.gz 69.02MB Kongsberg multibeam vendor format
0344_20170202_031711_EX1701_MB.all.mb58.gz 69.82MB Kongsberg multibeam vendor format
0345_20170202_041708_EX1701_MB.all.mb58.gz 69.91MB Kongsberg multibeam vendor format
0346_20170202_051712_EX1701_MB.all.mb58.gz 70.03MB Kongsberg multibeam vendor format
0347_20170202_061707_EX1701_MB.all.mb58.gz 68.58MB Kongsberg multibeam vendor format
0348_20170202_071711_EX1701_MB.all.mb58.gz 66.85MB Kongsberg multibeam vendor format
0349_20170202_081709_EX1701_MB.all.mb58.gz 43.77MB Kongsberg multibeam vendor format
0350_20170202_085659_EX1701_MB.all.mb58.gz 4.16MB Kongsberg multibeam vendor format
0351_20170202_090048_EX1701_MB.all.mb58.gz 65.99MB Kongsberg multibeam vendor format
0352_20170202_100039_EX1701_MB.all.mb58.gz 65.56MB Kongsberg multibeam vendor format
0353_20170202_110044_EX1701_MB.all.mb58.gz 64.70MB Kongsberg multibeam vendor format
0354_20170202_120053_EX1701_MB.all.mb58.gz 4.14MB Kongsberg multibeam vendor format
0355_20170202_120451_EX1701_MB.all.mb58.gz 35.20MB Kongsberg multibeam vendor format
0356_20170202_123652_EX1701_MB.all.mb58.gz 66.52MB Kongsberg multibeam vendor format
0357_20170202_133652_EX1701_MB.all.mb58.gz 67.09MB Kongsberg multibeam vendor format
0358_20170202_143650_EX1701_MB.all.mb58.gz 4.41MB Kongsberg multibeam vendor format
0359_20170202_144049_EX1701_MB.all.mb58.gz 16.96MB Kongsberg multibeam vendor format
0360_20170202_145612_EX1701_MB.all.mb58.gz 65.66MB Kongsberg multibeam vendor format
0361_20170202_155616_EX1701_MB.all.mb58.gz 38.59MB Kongsberg multibeam vendor format
0362_20170202_163131_EX1701_MB.all.mb58.gz 24.09MB Kongsberg multibeam vendor format
0363_20170202_165320_EX1701_MB.all.mb58.gz 66.51MB Kongsberg multibeam vendor format
0364_20170202_175326_EX1701_MB.all.mb58.gz 4.93MB Kongsberg multibeam vendor format
0365_20170202_175753_EX1701_MB.all.mb58.gz 47.87MB Kongsberg multibeam vendor format
0366_20170202_184107_EX1701_MB.all.mb58.gz 66.97MB Kongsberg multibeam vendor format
0367_20170202_194103_EX1701_MB.all.mb58.gz 70.07MB Kongsberg multibeam vendor format
0368_20170202_204102_EX1701_MB.all.mb58.gz 5.47MB Kongsberg multibeam vendor format
0369_20170203_002004_EX1701_MB.all.mb58.gz 67.57MB Kongsberg multibeam vendor format
0370_20170203_012007_EX1701_MB.all.mb58.gz 65.90MB Kongsberg multibeam vendor format
0371_20170203_022008_EX1701_MB.all.mb58.gz 24.83MB Kongsberg multibeam vendor format
0372_20170203_024255_EX1701_MB.all.mb58.gz 62.00MB Kongsberg multibeam vendor format
0373_20170203_033935_EX1701_MB.all.mb58.gz 65.69MB Kongsberg multibeam vendor format
0374_20170203_043941_EX1701_MB.all.mb58.gz 65.28MB Kongsberg multibeam vendor format
0375_20170203_053937_EX1701_MB.all.mb58.gz 22.57MB Kongsberg multibeam vendor format
0376_20170203_060023_EX1701_MB.all.mb58.gz 3.13MB Kongsberg multibeam vendor format
0377_20170203_060314_EX1701_MB.all.mb58.gz 65.72MB Kongsberg multibeam vendor format
0378_20170203_070316_EX1701_MB.all.mb58.gz 26.77MB Kongsberg multibeam vendor format
0379_20170203_072736_EX1701_MB.all.mb58.gz 4.65MB Kongsberg multibeam vendor format
0380_20170203_073149_EX1701_MB.all.mb58.gz 65.87MB Kongsberg multibeam vendor format
0381_20170203_083149_EX1701_MB.all.mb58.gz 65.75MB Kongsberg multibeam vendor format
0382_20170203_093147_EX1701_MB.all.mb58.gz 65.87MB Kongsberg multibeam vendor format
0383_20170203_103152_EX1701_MB.all.mb58.gz 43.83MB Kongsberg multibeam vendor format
0384_20170203_111154_EX1701_MB.all.mb58.gz 4.80MB Kongsberg multibeam vendor format
0385_20170203_111617_EX1701_MB.all.mb58.gz 65.72MB Kongsberg multibeam vendor format
0386_20170203_121621_EX1701_MB.all.mb58.gz 28.01MB Kongsberg multibeam vendor format
0387_20170203_124155_EX1701_MB.all.mb58.gz 4.44MB Kongsberg multibeam vendor format
0388_20170203_124600_EX1701_MB.all.mb58.gz 65.15MB Kongsberg multibeam vendor format
0389_20170203_134602_EX1701_MB.all.mb58.gz 65.38MB Kongsberg multibeam vendor format
0390_20170203_144554_EX1701_MB.all.mb58.gz 28.04MB Kongsberg multibeam vendor format
0391_20170203_151139_EX1701_MB.all.mb58.gz 19.01MB Kongsberg multibeam vendor format
0392_20170203_152916_EX1701_MB.all.mb58.gz 64.21MB Kongsberg multibeam vendor format
0393_20170203_162911_EX1701_MB.all.mb58.gz 65.18MB Kongsberg multibeam vendor format
0394_20170203_172909_EX1701_MB.all.mb58.gz 23.79MB Kongsberg multibeam vendor format
0395_20170203_175056_EX1701_MB.all.mb58.gz 65.26MB Kongsberg multibeam vendor format
0396_20170203_185054_EX1701_MB.all.mb58.gz 9.27MB Kongsberg multibeam vendor format
0397_20170203_185922_EX1701_MB.all.mb58.gz 52.68MB Kongsberg multibeam vendor format
0398_20170203_194719_EX1701_MB.all.mb58.gz 66.90MB Kongsberg multibeam vendor format
0399_20170203_204713_EX1701_MB.all.mb58.gz 69.10MB Kongsberg multibeam vendor format
0400_20170203_214713_EX1701_MB.all.mb58.gz 17.58MB Kongsberg multibeam vendor format
0401_20170203_220219_EX1701_MB.all.mb58.gz 56.22MB Kongsberg multibeam vendor format
0402_20170203_225130_EX1701_MB.all.mb58.gz 65.89MB Kongsberg multibeam vendor format
0403_20170203_235136_EX1701_MB.all.mb58.gz 65.00MB Kongsberg multibeam vendor format
0404_20170204_005140_EX1701_MB.all.mb58.gz 64.75MB Kongsberg multibeam vendor format
0405_20170204_015130_EX1701_MB.all.mb58.gz 46.64MB Kongsberg multibeam vendor format
0406_20170204_023341_EX1701_MB.all.mb58.gz 6.32MB Kongsberg multibeam vendor format
0407_20170204_023927_EX1701_MB.all.mb58.gz 67.73MB Kongsberg multibeam vendor format
0408_20170204_033925_EX1701_MB.all.mb58.gz 41.80MB Kongsberg multibeam vendor format
0409_20170204_041633_EX1701_MB.all.mb58.gz 66.69MB Kongsberg multibeam vendor format
0410_20170204_051630_EX1701_MB.all.mb58.gz 66.58MB Kongsberg multibeam vendor format
0411_20170204_061631_EX1701_MB.all.mb58.gz 68.30MB Kongsberg multibeam vendor format
0412_20170204_071635_EX1701_MB.all.mb58.gz 61.49MB Kongsberg multibeam vendor format
0413_20170204_080921_EX1701_MB.all.mb58.gz 2.68MB Kongsberg multibeam vendor format
0414_20170204_081143_EX1701_MB.all.mb58.gz 41.66MB Kongsberg multibeam vendor format
0415_20170204_084837_EX1701_MB.all.mb58.gz 65.80MB Kongsberg multibeam vendor format
0416_20170204_094835_EX1701_MB.all.mb58.gz 65.76MB Kongsberg multibeam vendor format
0417_20170204_104844_EX1701_MB.all.mb58.gz 65.68MB Kongsberg multibeam vendor format
0418_20170204_114843_EX1701_MB.all.mb58.gz 35.54MB Kongsberg multibeam vendor format
0419_20170204_122056_EX1701_MB.all.mb58.gz 1.87MB Kongsberg multibeam vendor format
0420_20170204_122234_EX1701_MB.all.mb58.gz 69.71MB Kongsberg multibeam vendor format
0421_20170204_132228_EX1701_MB.all.mb58.gz 66.66MB Kongsberg multibeam vendor format
0422_20170204_142237_EX1701_MB.all.mb58.gz 65.32MB Kongsberg multibeam vendor format
0423_20170204_152234_EX1701_MB.all.mb58.gz 65.42MB Kongsberg multibeam vendor format
0424_20170204_162238_EX1701_MB.all.mb58.gz 65.19MB Kongsberg multibeam vendor format
0425_20170204_172235_EX1701_MB.all.mb58.gz 66.57MB Kongsberg multibeam vendor format
0426_20170204_182229_EX1701_MB.all.mb58.gz 66.94MB Kongsberg multibeam vendor format
0427_20170204_192231_EX1701_MB.all.mb58.gz 53.65MB Kongsberg multibeam vendor format
0428_20170204_201020_EX1701_MB.all.mb58.gz 66.32MB Kongsberg multibeam vendor format
0429_20170204_211022_EX1701_MB.all.mb58.gz 18.49MB Kongsberg multibeam vendor format
0430_20170204_212712_EX1701_MB.all.mb58.gz 33.44MB Kongsberg multibeam vendor format
0431_20170204_215701_EX1701_MB.all.mb58.gz 19.71MB Kongsberg multibeam vendor format
0432_20170204_221429_EX1701_MB.all.mb58.gz 66.20MB Kongsberg multibeam vendor format
0433_20170204_231424_EX1701_MB.all.mb58.gz 66.71MB Kongsberg multibeam vendor format
0434_20170205_001424_EX1701_MB.all.mb58.gz 33.47MB Kongsberg multibeam vendor format
0435_20170205_004345_EX1701_MB.all.mb58.gz 55.96MB Kongsberg multibeam vendor format
0436_20170205_012952_EX1701_MB.all.mb58.gz 39.08MB Kongsberg multibeam vendor format
0437_20170205_020334_EX1701_MB.all.mb58.gz 70.08MB Kongsberg multibeam vendor format
0438_20170205_030337_EX1701_MB.all.mb58.gz 65.94MB Kongsberg multibeam vendor format
0439_20170205_040334_EX1701_MB.all.mb58.gz 64.85MB Kongsberg multibeam vendor format
0440_20170205_050334_EX1701_MB.all.mb58.gz 60.52MB Kongsberg multibeam vendor format
0441_20170205_055930_EX1701_MB.all.mb58.gz 65.31MB Kongsberg multibeam vendor format
0442_20170205_065925_EX1701_MB.all.mb58.gz 66.53MB Kongsberg multibeam vendor format
0443_20170205_075927_EX1701_MB.all.mb58.gz 69.48MB Kongsberg multibeam vendor format
0444_20170205_085928_EX1701_MB.all.mb58.gz 66.07MB Kongsberg multibeam vendor format
0445_20170205_095929_EX1701_MB.all.mb58.gz 67.39MB Kongsberg multibeam vendor format
0446_20170205_105928_EX1701_MB.all.mb58.gz 25.38MB Kongsberg multibeam vendor format
0447_20170205_112209_EX1701_MB.all.mb58.gz 5.24MB Kongsberg multibeam vendor format
0448_20170205_112652_EX1701_MB.all.mb58.gz 66.44MB Kongsberg multibeam vendor format
0449_20170205_122651_EX1701_MB.all.mb58.gz 48.81MB Kongsberg multibeam vendor format
0450_20170205_131051_EX1701_MB.all.mb58.gz 64.04MB Kongsberg multibeam vendor format
0451_20170205_140925_EX1701_MB.all.mb58.gz 67.12MB Kongsberg multibeam vendor format
0452_20170205_150927_EX1701_MB.all.mb58.gz 63.76MB Kongsberg multibeam vendor format
0453_20170205_160604_EX1701_MB.all.mb58.gz 16.41MB Kongsberg multibeam vendor format
0454_20170205_162018_EX1701_MB.all.mb58.gz 70.32MB Kongsberg multibeam vendor format
0455_20170205_172014_EX1701_MB.all.mb58.gz 67.97MB Kongsberg multibeam vendor format
0456_20170205_182032_EX1701_MB.all.mb58.gz 6.13MB Kongsberg multibeam vendor format
0457_20170205_182621_EX1701_MB.all.mb58.gz 15.34MB Kongsberg multibeam vendor format
0458_20170205_184036_EX1701_MB.all.mb58.gz 14.37MB Kongsberg multibeam vendor format
0459_20170205_185344_EX1701_MB.all.mb58.gz 66.42MB Kongsberg multibeam vendor format
0460_20170205_195347_EX1701_MB.all.mb58.gz 49.85MB Kongsberg multibeam vendor format
0461_20170205_203748_EX1701_MB.all.mb58.gz 42.80MB Kongsberg multibeam vendor format
0462_20170205_211620_EX1701_MB.all.mb58.gz 67.81MB Kongsberg multibeam vendor format
0463_20170205_221623_EX1701_MB.all.mb58.gz 58.61MB Kongsberg multibeam vendor format
0464_20170205_230809_EX1701_MB.all.mb58.gz 65.07MB Kongsberg multibeam vendor format
0465_20170206_000811_EX1701_MB.all.mb58.gz 67.18MB Kongsberg multibeam vendor format
0466_20170206_010810_EX1701_MB.all.mb58.gz 46.39MB Kongsberg multibeam vendor format
0467_20170206_014828_EX1701_MB.all.mb58.gz 68.28MB Kongsberg multibeam vendor format
0468_20170206_024828_EX1701_MB.all.mb58.gz 88.58MB Kongsberg multibeam vendor format
0469_20170206_034826_EX1701_MB.all.mb58.gz 41.32MB Kongsberg multibeam vendor format
0470_20170206_042416_EX1701_MB.all.mb58.gz 67.73MB Kongsberg multibeam vendor format
0471_20170206_052413_EX1701_MB.all.mb58.gz 27.58MB Kongsberg multibeam vendor format
0472_20170206_054730_EX1701_MB.all.mb58.gz 68.23MB Kongsberg multibeam vendor format
0473_20170206_064725_EX1701_MB.all.mb58.gz 66.07MB Kongsberg multibeam vendor format
0474_20170206_074733_EX1701_MB.all.mb58.gz 65.64MB Kongsberg multibeam vendor format
0475_20170206_084726_EX1701_MB.all.mb58.gz 66.02MB Kongsberg multibeam vendor format
0476_20170206_094725_EX1701_MB.all.mb58.gz 67.05MB Kongsberg multibeam vendor format
0477_20170206_104731_EX1701_MB.all.mb58.gz 69.70MB Kongsberg multibeam vendor format
0478_20170206_114726_EX1701_MB.all.mb58.gz 23.55MB Kongsberg multibeam vendor format
0479_20170206_120803_EX1701_MB.all.mb58.gz 25.02MB Kongsberg multibeam vendor format
0480_20170206_123019_EX1701_MB.all.mb58.gz 69.00MB Kongsberg multibeam vendor format
0481_20170206_133019_EX1701_MB.all.mb58.gz 9.28MB Kongsberg multibeam vendor format
0482_20170206_133820_EX1701_MB.all.mb58.gz 18.95MB Kongsberg multibeam vendor format
0483_20170206_135459_EX1701_MB.all.mb58.gz 67.19MB Kongsberg multibeam vendor format
0484_20170206_145457_EX1701_MB.all.mb58.gz 16.60MB Kongsberg multibeam vendor format
0485_20170206_150933_EX1701_MB.all.mb58.gz 29.47MB Kongsberg multibeam vendor format
0486_20170206_153525_EX1701_MB.all.mb58.gz 67.96MB Kongsberg multibeam vendor format
0487_20170206_163524_EX1701_MB.all.mb58.gz 10.64MB Kongsberg multibeam vendor format
0488_20170206_164448_EX1701_MB.all.mb58.gz 27.43MB Kongsberg multibeam vendor format
0489_20170206_170851_EX1701_MB.all.mb58.gz 57.27MB Kongsberg multibeam vendor format
0490_20170206_175859_EX1701_MB.all.mb58.gz 21.12MB Kongsberg multibeam vendor format
0491_20170206_181731_EX1701_MB.all.mb58.gz 59.54MB Kongsberg multibeam vendor format
0492_20170206_191005_EX1701_MB.all.mb58.gz 66.40MB Kongsberg multibeam vendor format
0493_20170206_200958_EX1701_MB.all.mb58.gz 28.01MB Kongsberg multibeam vendor format
0494_20170206_203517_EX1701_MB.all.mb58.gz 67.27MB Kongsberg multibeam vendor format
0495_20170206_213515_EX1701_MB.all.mb58.gz 58.47MB Kongsberg multibeam vendor format
0496_20170206_222614_EX1701_MB.all.mb58.gz 65.75MB Kongsberg multibeam vendor format
0497_20170206_232611_EX1701_MB.all.mb58.gz 65.21MB Kongsberg multibeam vendor format
0498_20170207_002613_EX1701_MB.all.mb58.gz 29.17MB Kongsberg multibeam vendor format
0499_20170207_005231_EX1701_MB.all.mb58.gz 67.41MB Kongsberg multibeam vendor format
0500_20170207_015230_EX1701_MB.all.mb58.gz 68.01MB Kongsberg multibeam vendor format
0501_20170207_025230_EX1701_MB.all.mb58.gz 18.13MB Kongsberg multibeam vendor format
0502_20170207_030819_EX1701_MB.all.mb58.gz 18.89MB Kongsberg multibeam vendor format
0503_20170207_032457_EX1701_MB.all.mb58.gz 64.43MB Kongsberg multibeam vendor format
0504_20170207_042056_EX1701_MB.all.mb58.gz 12.35MB Kongsberg multibeam vendor format
0505_20170207_043157_EX1701_MB.all.mb58.gz 1.66MB Kongsberg multibeam vendor format
0506_20170207_043327_EX1701_MB.all.mb58.gz 66.74MB Kongsberg multibeam vendor format
0507_20170207_053321_EX1701_MB.all.mb58.gz 66.16MB Kongsberg multibeam vendor format
0508_20170207_063318_EX1701_MB.all.mb58.gz 67.28MB Kongsberg multibeam vendor format
0509_20170207_073326_EX1701_MB.all.mb58.gz 6.39MB Kongsberg multibeam vendor format
0510_20170207_073904_EX1701_MB.all.mb58.gz 16.94MB Kongsberg multibeam vendor format
0511_20170207_075355_EX1701_MB.all.mb58.gz 69.01MB Kongsberg multibeam vendor format
0512_20170207_085349_EX1701_MB.all.mb58.gz 17.29MB Kongsberg multibeam vendor format
0513_20170207_090859_EX1701_MB.all.mb58.gz 67.78MB Kongsberg multibeam vendor format
0514_20170207_100902_EX1701_MB.all.mb58.gz 3.33MB Kongsberg multibeam vendor format
0515_20170207_101201_EX1701_MB.all.mb58.gz 67.42MB Kongsberg multibeam vendor format
0516_20170207_111204_EX1701_MB.all.mb58.gz 65.47MB Kongsberg multibeam vendor format
0517_20170207_121008_EX1701_MB.all.mb58.gz 5.23MB Kongsberg multibeam vendor format
0518_20170207_121444_EX1701_MB.all.mb58.gz 66.27MB Kongsberg multibeam vendor format
0519_20170207_131445_EX1701_MB.all.mb58.gz 64.50MB Kongsberg multibeam vendor format
0520_20170207_141328_EX1701_MB.all.mb58.gz 66.81MB Kongsberg multibeam vendor format
0521_20170207_151328_EX1701_MB.all.mb58.gz 66.09MB Kongsberg multibeam vendor format
0522_20170207_161326_EX1701_MB.all.mb58.gz 38.91MB Kongsberg multibeam vendor format
0523_20170207_164747_EX1701_MB.all.mb58.gz 19.19MB Kongsberg multibeam vendor format
0524_20170207_170436_EX1701_MB.all.mb58.gz 68.55MB Kongsberg multibeam vendor format
0525_20170207_180433_EX1701_MB.all.mb58.gz 16.00MB Kongsberg multibeam vendor format
0526_20170207_181845_EX1701_MB.all.mb58.gz 19.75MB Kongsberg multibeam vendor format
0527_20170207_183633_EX1701_MB.all.mb58.gz 69.20MB Kongsberg multibeam vendor format
0528_20170207_193633_EX1701_MB.all.mb58.gz 31.19MB Kongsberg multibeam vendor format
0529_20170207_200328_EX1701_MB.all.mb58.gz 5.99MB Kongsberg multibeam vendor format
0530_20170207_200845_EX1701_MB.all.mb58.gz 67.92MB Kongsberg multibeam vendor format
0531_20170207_210843_EX1701_MB.all.mb58.gz 39.06MB Kongsberg multibeam vendor format
0532_20170207_214347_EX1701_MB.all.mb58.gz 62.82MB Kongsberg multibeam vendor format
0533_20170207_223853_EX1701_MB.all.mb58.gz 18.23MB Kongsberg multibeam vendor format
0534_20170207_225512_EX1701_MB.all.mb58.gz 65.07MB Kongsberg multibeam vendor format
0535_20170207_235125_EX1701_MB.all.mb58.gz 14.14MB Kongsberg multibeam vendor format
0536_20170208_000349_EX1701_MB.all.mb58.gz 68.90MB Kongsberg multibeam vendor format
0537_20170208_010355_EX1701_MB.all.mb58.gz 1.04MB Kongsberg multibeam vendor format
0538_20170208_010451_EX1701_MB.all.mb58.gz 27.20MB Kongsberg multibeam vendor format
0539_20170208_012922_EX1701_MB.all.mb58.gz 66.30MB Kongsberg multibeam vendor format
0540_20170208_022923_EX1701_MB.all.mb58.gz 45.66MB Kongsberg multibeam vendor format
0541_20170208_031027_EX1701_MB.all.mb58.gz 66.97MB Kongsberg multibeam vendor format
0542_20170208_041027_EX1701_MB.all.mb58.gz 65.46MB Kongsberg multibeam vendor format
0543_20170208_051020_EX1701_MB.all.mb58.gz 66.04MB Kongsberg multibeam vendor format
0544_20170208_061021_EX1701_MB.all.mb58.gz 68.52MB Kongsberg multibeam vendor format
0545_20170208_071025_EX1701_MB.all.mb58.gz 20.89MB Kongsberg multibeam vendor format
0546_20170208_072900_EX1701_MB.all.mb58.gz 65.76MB Kongsberg multibeam vendor format
0547_20170208_082857_EX1701_MB.all.mb58.gz 47.19MB Kongsberg multibeam vendor format
0548_20170208_091150_EX1701_MB.all.mb58.gz 4.23MB Kongsberg multibeam vendor format
0549_20170208_091538_EX1701_MB.all.mb58.gz 66.83MB Kongsberg multibeam vendor format
0550_20170208_101538_EX1701_MB.all.mb58.gz 52.64MB Kongsberg multibeam vendor format
0551_20170208_110153_EX1701_MB.all.mb58.gz 23.55MB Kongsberg multibeam vendor format
0552_20170208_112234_EX1701_MB.all.mb58.gz 69.85MB Kongsberg multibeam vendor format
0553_20170208_122230_EX1701_MB.all.mb58.gz 55.04MB Kongsberg multibeam vendor format
0554_20170208_130941_EX1701_MB.all.mb58.gz 17.68MB Kongsberg multibeam vendor format
0555_20170208_132540_EX1701_MB.all.mb58.gz 68.53MB Kongsberg multibeam vendor format
0556_20170208_142537_EX1701_MB.all.mb58.gz 68.57MB Kongsberg multibeam vendor format
0557_20170208_152341_EX1701_MB.all.mb58.gz 4.94MB Kongsberg multibeam vendor format
0558_20170208_152754_EX1701_MB.all.mb58.gz 14.11MB Kongsberg multibeam vendor format
0559_20170208_154006_EX1701_MB.all.mb58.gz 68.19MB Kongsberg multibeam vendor format
0560_20170208_164009_EX1701_MB.all.mb58.gz 56.90MB Kongsberg multibeam vendor format
0561_20170208_172955_EX1701_MB.all.mb58.gz 16.87MB Kongsberg multibeam vendor format
0562_20170208_174504_EX1701_MB.all.mb58.gz 68.45MB Kongsberg multibeam vendor format
0563_20170208_184504_EX1701_MB.all.mb58.gz 68.19MB Kongsberg multibeam vendor format
0564_20170208_194506_EX1701_MB.all.mb58.gz 28.09MB Kongsberg multibeam vendor format
0565_20170208_200859_EX1701_MB.all.mb58.gz 26.54MB Kongsberg multibeam vendor format
0566_20170208_203211_EX1701_MB.all.mb58.gz 66.24MB Kongsberg multibeam vendor format
0567_20170208_213211_EX1701_MB.all.mb58.gz 14.71MB Kongsberg multibeam vendor format
0568_20170208_214530_EX1701_MB.all.mb58.gz 66.83MB Kongsberg multibeam vendor format
0569_20170208_224533_EX1701_MB.all.mb58.gz 66.83MB Kongsberg multibeam vendor format
0570_20170208_234532_EX1701_MB.all.mb58.gz 66.47MB Kongsberg multibeam vendor format
0571_20170209_004531_EX1701_MB.all.mb58.gz 21.83MB Kongsberg multibeam vendor format
0572_20170209_010512_EX1701_MB.all.mb58.gz 66.20MB Kongsberg multibeam vendor format
0573_20170209_020514_EX1701_MB.all.mb58.gz 66.00MB Kongsberg multibeam vendor format
0574_20170209_030516_EX1701_MB.all.mb58.gz 48.76MB Kongsberg multibeam vendor format
0575_20170209_034924_EX1701_MB.all.mb58.gz 3.93MB Kongsberg multibeam vendor format
0576_20170209_035255_EX1701_MB.all.mb58.gz 55.42MB Kongsberg multibeam vendor format
0577_20170209_044243_EX1701_MB.all.mb58.gz 3.90MB Kongsberg multibeam vendor format
0578_20170209_044614_EX1701_MB.all.mb58.gz 67.69MB Kongsberg multibeam vendor format
0579_20170209_054612_EX1701_MB.all.mb58.gz 44.42MB Kongsberg multibeam vendor format
0580_20170209_062526_EX1701_MB.all.mb58.gz 66.77MB Kongsberg multibeam vendor format
0581_20170209_072531_EX1701_MB.all.mb58.gz 66.79MB Kongsberg multibeam vendor format
0582_20170209_082524_EX1701_MB.all.mb58.gz 67.81MB Kongsberg multibeam vendor format
0583_20170209_092523_EX1701_MB.all.mb58.gz 67.60MB Kongsberg multibeam vendor format
0584_20170209_102527_EX1701_MB.all.mb58.gz 67.99MB Kongsberg multibeam vendor format
0585_20170209_112527_EX1701_MB.all.mb58.gz 67.94MB Kongsberg multibeam vendor format
0586_20170209_122524_EX1701_MB.all.mb58.gz 67.90MB Kongsberg multibeam vendor format
0587_20170209_132524_EX1701_MB.all.mb58.gz 66.66MB Kongsberg multibeam vendor format
0588_20170209_142534_EX1701_MB.all.mb58.gz 66.32MB Kongsberg multibeam vendor format
0589_20170209_152530_EX1701_MB.all.mb58.gz 66.86MB Kongsberg multibeam vendor format
0590_20170209_162530_EX1701_MB.all.mb58.gz 65.79MB Kongsberg multibeam vendor format
0591_20170209_172525_EX1701_MB.all.mb58.gz 65.79MB Kongsberg multibeam vendor format
0592_20170209_182532_EX1701_MB.all.mb58.gz 66.35MB Kongsberg multibeam vendor format
0593_20170209_192529_EX1701_MB.all.mb58.gz 66.80MB Kongsberg multibeam vendor format
0594_20170209_202530_EX1701_MB.all.mb58.gz 66.60MB Kongsberg multibeam vendor format
0595_20170209_212527_EX1701_MB.all.mb58.gz 66.30MB Kongsberg multibeam vendor format
0596_20170209_222528_EX1701_MB.all.mb58.gz 29.77MB Kongsberg multibeam vendor format
0597_20170209_225222_EX1701_MB.all.mb58.gz 57.28MB Kongsberg multibeam vendor format
0598_20170209_234342_EX1701_MB.all.mb58.gz 60.82MB Kongsberg multibeam vendor format
0599_20170210_003840_EX1701_MB.all.mb58.gz 66.41MB Kongsberg multibeam vendor format
0600_20170210_013839_EX1701_MB.all.mb58.gz 12.24MB Kongsberg multibeam vendor format
0601_20170210_014944_EX1701_MB.all.mb58.gz 8.95MB Kongsberg multibeam vendor format
0602_20170210_015751_EX1701_MB.all.mb58.gz 66.64MB Kongsberg multibeam vendor format
0603_20170210_025753_EX1701_MB.all.mb58.gz 20.49MB Kongsberg multibeam vendor format
0604_20170210_031624_EX1701_MB.all.mb58.gz 9.66MB Kongsberg multibeam vendor format
0605_20170210_032508_EX1701_MB.all.mb58.gz 58.42MB Kongsberg multibeam vendor format
0606_20170210_041755_EX1701_MB.all.mb58.gz 7.61MB Kongsberg multibeam vendor format
0607_20170210_042444_EX1701_MB.all.mb58.gz 68.59MB Kongsberg multibeam vendor format
0608_20170210_052449_EX1701_MB.all.mb58.gz 9.76MB Kongsberg multibeam vendor format
0609_20170210_053325_EX1701_MB.all.mb58.gz 6.65MB Kongsberg multibeam vendor format
0610_20170210_053922_EX1701_MB.all.mb58.gz 47.75MB Kongsberg multibeam vendor format
0611_20170210_062149_EX1701_MB.all.mb58.gz 8.26MB Kongsberg multibeam vendor format
0612_20170210_062910_EX1701_MB.all.mb58.gz 56.40MB Kongsberg multibeam vendor format
0613_20170210_071825_EX1701_MB.all.mb58.gz 8.43MB Kongsberg multibeam vendor format
0614_20170210_072551_EX1701_MB.all.mb58.gz 67.87MB Kongsberg multibeam vendor format
0615_20170210_082546_EX1701_MB.all.mb58.gz 66.71MB Kongsberg multibeam vendor format
0616_20170210_092549_EX1701_MB.all.mb58.gz 67.12MB Kongsberg multibeam vendor format
0617_20170210_102550_EX1701_MB.all.mb58.gz 66.97MB Kongsberg multibeam vendor format
0618_20170210_112544_EX1701_MB.all.mb58.gz 67.07MB Kongsberg multibeam vendor format
0619_20170210_122544_EX1701_MB.all.mb58.gz 67.18MB Kongsberg multibeam vendor format
0620_20170210_132550_EX1701_MB.all.mb58.gz 66.73MB Kongsberg multibeam vendor format
0621_20170210_142549_EX1701_MB.all.mb58.gz 66.39MB Kongsberg multibeam vendor format
0622_20170210_152547_EX1701_MB.all.mb58.gz 64.30MB Kongsberg multibeam vendor format
0623_20170210_162355_EX1701_MB.all.mb58.gz 66.29MB Kongsberg multibeam vendor format
0624_20170210_172349_EX1701_MB.all.mb58.gz 66.33MB Kongsberg multibeam vendor format
0625_20170210_182347_EX1701_MB.all.mb58.gz 66.35MB Kongsberg multibeam vendor format
0626_20170210_192348_EX1701_MB.all.mb58.gz 66.45MB Kongsberg multibeam vendor format
0627_20170210_202351_EX1701_MB.all.mb58.gz 42.91MB Kongsberg multibeam vendor format
0629_20170210_210235_EX1701_MB.all.mb58.gz 66.37MB Kongsberg multibeam vendor format
0630_20170210_220231_EX1701_MB.all.mb58.gz 66.37MB Kongsberg multibeam vendor format
0631_20170210_230233_EX1701_MB.all.mb58.gz 66.39MB Kongsberg multibeam vendor format
0632_20170211_000235_EX1701_MB.all.mb58.gz 67.04MB Kongsberg multibeam vendor format
0633_20170211_010240_EX1701_MB.all.mb58.gz 67.30MB Kongsberg multibeam vendor format
0634_20170211_020233_EX1701_MB.all.mb58.gz 67.60MB Kongsberg multibeam vendor format
0635_20170211_030233_EX1701_MB.all.mb58.gz 55.31MB Kongsberg multibeam vendor format
0636_20170211_035100_EX1701_MB.all.mb58.gz 6.21MB Kongsberg multibeam vendor format
0637_20170211_035614_EX1701_MB.all.mb58.gz 51.84MB Kongsberg multibeam vendor format
0638_20170211_044057_EX1701_MB.all.mb58.gz 15.17MB Kongsberg multibeam vendor format
0639_20170211_045422_EX1701_MB.all.mb58.gz 50.72MB Kongsberg multibeam vendor format
0640_20170211_053839_EX1701_MB.all.mb58.gz 51.66MB Kongsberg multibeam vendor format
0641_20170211_062223_EX1701_MB.all.mb58.gz 3.02MB Kongsberg multibeam vendor format
0642_20170211_062446_EX1701_MB.all.mb58.gz 71.04MB Kongsberg multibeam vendor format
0643_20170211_072230_EX1701_MB.all.mb58.gz 12.65MB Kongsberg multibeam vendor format
0644_20170211_073320_EX1701_MB.all.mb58.gz 72.15MB Kongsberg multibeam vendor format
0645_20170211_083315_EX1701_MB.all.mb58.gz 25.19MB Kongsberg multibeam vendor format
0646_20170211_085243_EX1701_MB.all.mb58.gz 17.59MB Kongsberg multibeam vendor format
0647_20170211_090738_EX1701_MB.all.mb58.gz 77.38MB Kongsberg multibeam vendor format
0648_20170211_100737_EX1701_MB.all.mb58.gz 30.56MB Kongsberg multibeam vendor format
0649_20170211_103415_EX1701_MB.all.mb58.gz 20.67MB Kongsberg multibeam vendor format
0650_20170211_105235_EX1701_MB.all.mb58.gz 69.65MB Kongsberg multibeam vendor format
0651_20170211_115234_EX1701_MB.all.mb58.gz 42.48MB Kongsberg multibeam vendor format
0652_20170211_122000_EX1701_MB.all.mb58.gz 5.41MB Kongsberg multibeam vendor format
0653_20170211_122352_EX1701_MB.all.mb58.gz 84.49MB Kongsberg multibeam vendor format
0654_20170211_132039_EX1701_MB.all.mb58.gz 17.83MB Kongsberg multibeam vendor format
0655_20170211_133517_EX1701_MB.all.mb58.gz 57.35MB Kongsberg multibeam vendor format
0656_20170211_142108_EX1701_MB.all.mb58.gz 73.27MB Kongsberg multibeam vendor format
0657_20170211_152106_EX1701_MB.all.mb58.gz 48.63MB Kongsberg multibeam vendor format
0658_20170211_160411_EX1701_MB.all.mb58.gz 58.66MB Kongsberg multibeam vendor format
0659_20170211_165540_EX1701_MB.all.mb58.gz 38.77MB Kongsberg multibeam vendor format

Full Resolution Bathymetry (processed): 656

Files File Size Description
0000_20170121_000300_EX1701_MB-EM302.gsf.mb121.gz 30.75MB SAIC Generic Sensor Format (GSF)
0001_20170121_010304_EX1701_MB-EM302.gsf.mb121.gz 40.04MB SAIC Generic Sensor Format (GSF)
0002_20170121_020305_EX1701_MB-EM302.gsf.mb121.gz 38.83MB SAIC Generic Sensor Format (GSF)
0003_20170121_030304_EX1701_MB-EM302.gsf.mb121.gz 34.91MB SAIC Generic Sensor Format (GSF)
0004_20170121_040307_EX1701_MB-EM302.gsf.mb121.gz 29.08MB SAIC Generic Sensor Format (GSF)
0005_20170121_043321_EX1701_MB-EM302.gsf.mb121.gz 33.89MB SAIC Generic Sensor Format (GSF)
0006_20170121_052958_EX1701_MB-EM302.gsf.mb121.gz 39.54MB SAIC Generic Sensor Format (GSF)
0007_20170121_062957_EX1701_MB-EM302.gsf.mb121.gz 40.07MB SAIC Generic Sensor Format (GSF)
0008_20170121_072956_EX1701_MB-EM302.gsf.mb121.gz 40.14MB SAIC Generic Sensor Format (GSF)
0009_20170121_083000_EX1701_MB-EM302.gsf.mb121.gz 40.17MB SAIC Generic Sensor Format (GSF)
0010_20170121_093000_EX1701_MB-EM302.gsf.mb121.gz 40.15MB SAIC Generic Sensor Format (GSF)
0011_20170121_103001_EX1701_MB-EM302.gsf.mb121.gz 42.35MB SAIC Generic Sensor Format (GSF)
0012_20170121_113001_EX1701_MB-EM302.gsf.mb121.gz 40.12MB SAIC Generic Sensor Format (GSF)
0013_20170121_123000_EX1701_MB-EM302.gsf.mb121.gz 39.89MB SAIC Generic Sensor Format (GSF)
0014_20170121_132959_EX1701_MB-EM302.gsf.mb121.gz 39.74MB SAIC Generic Sensor Format (GSF)
0015_20170121_142959_EX1701_MB-EM302.gsf.mb121.gz 39.93MB SAIC Generic Sensor Format (GSF)
0016_20170121_153001_EX1701_MB-EM302.gsf.mb121.gz 38.89MB SAIC Generic Sensor Format (GSF)
0017_20170121_162956_EX1701_MB-EM302.gsf.mb121.gz 39.04MB SAIC Generic Sensor Format (GSF)
0018_20170121_172956_EX1701_MB-EM302.gsf.mb121.gz 38.97MB SAIC Generic Sensor Format (GSF)
0019_20170121_182955_EX1701_MB-EM302.gsf.mb121.gz 38.91MB SAIC Generic Sensor Format (GSF)
0020_20170121_193000_EX1701_MB-EM302.gsf.mb121.gz 38.46MB SAIC Generic Sensor Format (GSF)
0021_20170121_202958_EX1701_MB-EM302.gsf.mb121.gz 38.30MB SAIC Generic Sensor Format (GSF)
0022_20170121_212957_EX1701_MB-EM302.gsf.mb121.gz 37.75MB SAIC Generic Sensor Format (GSF)
0023_20170121_223002_EX1701_MB-EM302.gsf.mb121.gz 37.72MB SAIC Generic Sensor Format (GSF)
0024_20170121_233001_EX1701_MB-EM302.gsf.mb121.gz 37.93MB SAIC Generic Sensor Format (GSF)
0025_20170122_003001_EX1701_MB-EM302.gsf.mb121.gz 29.12MB SAIC Generic Sensor Format (GSF)
0026_20170122_012954_EX1701_MB-EM302.gsf.mb121.gz 21.57MB SAIC Generic Sensor Format (GSF)
0027_20170122_013732_EX1701_MB-EM302.gsf.mb121.gz 29.22MB SAIC Generic Sensor Format (GSF)
0028_20170122_023731_EX1701_MB-EM302.gsf.mb121.gz 37.91MB SAIC Generic Sensor Format (GSF)
0029_20170122_033727_EX1701_MB-EM302.gsf.mb121.gz 37.69MB SAIC Generic Sensor Format (GSF)
0030_20170122_043725_EX1701_MB-EM302.gsf.mb121.gz 38.02MB SAIC Generic Sensor Format (GSF)
0031_20170122_053724_EX1701_MB-EM302.gsf.mb121.gz 37.81MB SAIC Generic Sensor Format (GSF)
0032_20170122_063731_EX1701_MB-EM302.gsf.mb121.gz 38.03MB SAIC Generic Sensor Format (GSF)
0033_20170122_073727_EX1701_MB-EM302.gsf.mb121.gz 37.60MB SAIC Generic Sensor Format (GSF)
0034_20170122_083724_EX1701_MB-EM302.gsf.mb121.gz 37.61MB SAIC Generic Sensor Format (GSF)
0035_20170122_093726_EX1701_MB-EM302.gsf.mb121.gz 37.13MB SAIC Generic Sensor Format (GSF)
0036_20170122_103730_EX1701_MB-EM302.gsf.mb121.gz 37.45MB SAIC Generic Sensor Format (GSF)
0037_20170122_113725_EX1701_MB-EM302.gsf.mb121.gz 36.64MB SAIC Generic Sensor Format (GSF)
0038_20170122_123730_EX1701_MB-EM302.gsf.mb121.gz 35.93MB SAIC Generic Sensor Format (GSF)
0039_20170122_133729_EX1701_MB-EM302.gsf.mb121.gz 37.28MB SAIC Generic Sensor Format (GSF)
0040_20170122_143727_EX1701_MB-EM302.gsf.mb121.gz 36.92MB SAIC Generic Sensor Format (GSF)
0041_20170122_153727_EX1701_MB-EM302.gsf.mb121.gz 37.64MB SAIC Generic Sensor Format (GSF)
0042_20170122_163731_EX1701_MB-EM302.gsf.mb121.gz 36.92MB SAIC Generic Sensor Format (GSF)
0043_20170122_173730_EX1701_MB-EM302.gsf.mb121.gz 35.45MB SAIC Generic Sensor Format (GSF)
0044_20170122_183731_EX1701_MB-EM302.gsf.mb121.gz 35.85MB SAIC Generic Sensor Format (GSF)
0045_20170122_193726_EX1701_MB-EM302.gsf.mb121.gz 36.90MB SAIC Generic Sensor Format (GSF)
0046_20170122_203724_EX1701_MB-EM302.gsf.mb121.gz 37.46MB SAIC Generic Sensor Format (GSF)
0047_20170122_213737_EX1701_MB-EM302.gsf.mb121.gz 37.43MB SAIC Generic Sensor Format (GSF)
0048_20170122_223727_EX1701_MB-EM302.gsf.mb121.gz 37.43MB SAIC Generic Sensor Format (GSF)
0049_20170122_233734_EX1701_MB-EM302.gsf.mb121.gz 37.32MB SAIC Generic Sensor Format (GSF)
0050_20170123_003731_EX1701_MB-EM302.gsf.mb121.gz 29.46MB SAIC Generic Sensor Format (GSF)
0051_20170123_013730_EX1701_MB-EM302.gsf.mb121.gz 22.61MB SAIC Generic Sensor Format (GSF)
0052_20170123_014838_EX1701_MB-EM302.gsf.mb121.gz 29.60MB SAIC Generic Sensor Format (GSF)
0053_20170123_024836_EX1701_MB-EM302.gsf.mb121.gz 36.83MB SAIC Generic Sensor Format (GSF)
0054_20170123_034840_EX1701_MB-EM302.gsf.mb121.gz 36.98MB SAIC Generic Sensor Format (GSF)
0055_20170123_044839_EX1701_MB-EM302.gsf.mb121.gz 36.65MB SAIC Generic Sensor Format (GSF)
0056_20170123_054839_EX1701_MB-EM302.gsf.mb121.gz 36.63MB SAIC Generic Sensor Format (GSF)
0057_20170123_064837_EX1701_MB-EM302.gsf.mb121.gz 37.12MB SAIC Generic Sensor Format (GSF)
0058_20170123_074845_EX1701_MB-EM302.gsf.mb121.gz 36.66MB SAIC Generic Sensor Format (GSF)
0059_20170123_084836_EX1701_MB-EM302.gsf.mb121.gz 37.99MB SAIC Generic Sensor Format (GSF)
0060_20170123_094841_EX1701_MB-EM302.gsf.mb121.gz 37.76MB SAIC Generic Sensor Format (GSF)
0061_20170123_104843_EX1701_MB-EM302.gsf.mb121.gz 36.03MB SAIC Generic Sensor Format (GSF)
0062_20170123_114838_EX1701_MB-EM302.gsf.mb121.gz 44.08MB SAIC Generic Sensor Format (GSF)
0063_20170123_124842_EX1701_MB-EM302.gsf.mb121.gz 39.47MB SAIC Generic Sensor Format (GSF)
0064_20170123_134844_EX1701_MB-EM302.gsf.mb121.gz 37.52MB SAIC Generic Sensor Format (GSF)
0065_20170123_144843_EX1701_MB-EM302.gsf.mb121.gz 37.39MB SAIC Generic Sensor Format (GSF)
0066_20170123_154845_EX1701_MB-EM302.gsf.mb121.gz 36.95MB SAIC Generic Sensor Format (GSF)
0067_20170123_164837_EX1701_MB-EM302.gsf.mb121.gz 37.66MB SAIC Generic Sensor Format (GSF)
0068_20170123_174841_EX1701_MB-EM302.gsf.mb121.gz 38.12MB SAIC Generic Sensor Format (GSF)
0069_20170123_184844_EX1701_MB-EM302.gsf.mb121.gz 38.49MB SAIC Generic Sensor Format (GSF)
0070_20170123_194841_EX1701_MB-EM302.gsf.mb121.gz 37.75MB SAIC Generic Sensor Format (GSF)
0071_20170123_204841_EX1701_MB-EM302.gsf.mb121.gz 37.57MB SAIC Generic Sensor Format (GSF)
0072_20170123_214846_EX1701_MB-EM302.gsf.mb121.gz 38.47MB SAIC Generic Sensor Format (GSF)
0073_20170123_224839_EX1701_MB-EM302.gsf.mb121.gz 31.42MB SAIC Generic Sensor Format (GSF)
0074_20170123_234844_EX1701_MB-EM302.gsf.mb121.gz 24.15MB SAIC Generic Sensor Format (GSF)
0075_20170124_000353_EX1701_MB-EM302.gsf.mb121.gz 31.11MB SAIC Generic Sensor Format (GSF)
0076_20170124_010356_EX1701_MB-EM302.gsf.mb121.gz 33.72MB SAIC Generic Sensor Format (GSF)
0077_20170124_020347_EX1701_MB-EM302.gsf.mb121.gz 20.90MB SAIC Generic Sensor Format (GSF)
0078_20170124_023514_EX1701_MB-EM302.gsf.mb121.gz 15.54MB SAIC Generic Sensor Format (GSF)
0079_20170124_023750_EX1701_MB-EM302.gsf.mb121.gz 23.13MB SAIC Generic Sensor Format (GSF)
0080_20170124_033753_EX1701_MB-EM302.gsf.mb121.gz 17.49MB SAIC Generic Sensor Format (GSF)
0081_20170124_035119_EX1701_MB-EM302.gsf.mb121.gz 18.16MB SAIC Generic Sensor Format (GSF)
0082_20170124_041239_EX1701_MB-EM302.gsf.mb121.gz 26.27MB SAIC Generic Sensor Format (GSF)
0083_20170124_050651_EX1701_MB-EM302.gsf.mb121.gz 28.26MB SAIC Generic Sensor Format (GSF)
0084_20170124_053210_EX1701_MB-EM302.gsf.mb121.gz 27.94MB SAIC Generic Sensor Format (GSF)
0085_20170124_063215_EX1701_MB-EM302.gsf.mb121.gz 15.37MB SAIC Generic Sensor Format (GSF)
0086_20170124_063844_EX1701_MB-EM302.gsf.mb121.gz 18.54MB SAIC Generic Sensor Format (GSF)
0087_20170124_070021_EX1701_MB-EM302.gsf.mb121.gz 32.85MB SAIC Generic Sensor Format (GSF)
0088_20170124_080017_EX1701_MB-EM302.gsf.mb121.gz 18.15MB SAIC Generic Sensor Format (GSF)
0089_20170124_081128_EX1701_MB-EM302.gsf.mb121.gz 20.35MB SAIC Generic Sensor Format (GSF)
0090_20170124_083448_EX1701_MB-EM302.gsf.mb121.gz 30.61MB SAIC Generic Sensor Format (GSF)
0091_20170124_093447_EX1701_MB-EM302.gsf.mb121.gz 14.86MB SAIC Generic Sensor Format (GSF)
0093_20170124_094528_EX1701_MB-EM302.gsf.mb121.gz 21.33MB SAIC Generic Sensor Format (GSF)
0094_20170124_101234_EX1701_MB-EM302.gsf.mb121.gz 36.37MB SAIC Generic Sensor Format (GSF)
0095_20170124_111236_EX1701_MB-EM302.gsf.mb121.gz 41.34MB SAIC Generic Sensor Format (GSF)
0096_20170124_121239_EX1701_MB-EM302.gsf.mb121.gz 39.55MB SAIC Generic Sensor Format (GSF)
0097_20170124_131243_EX1701_MB-EM302.gsf.mb121.gz 39.31MB SAIC Generic Sensor Format (GSF)
0098_20170124_141238_EX1701_MB-EM302.gsf.mb121.gz 39.63MB SAIC Generic Sensor Format (GSF)
0099_20170124_151235_EX1701_MB-EM302.gsf.mb121.gz 38.84MB SAIC Generic Sensor Format (GSF)
0100_20170124_161235_EX1701_MB-EM302.gsf.mb121.gz 38.63MB SAIC Generic Sensor Format (GSF)
0101_20170124_171236_EX1701_MB-EM302.gsf.mb121.gz 38.39MB SAIC Generic Sensor Format (GSF)
0102_20170124_181232_EX1701_MB-EM302.gsf.mb121.gz 39.21MB SAIC Generic Sensor Format (GSF)
0103_20170124_191236_EX1701_MB-EM302.gsf.mb121.gz 39.55MB SAIC Generic Sensor Format (GSF)
0104_20170124_201239_EX1701_MB-EM302.gsf.mb121.gz 38.72MB SAIC Generic Sensor Format (GSF)
0105_20170124_211236_EX1701_MB-EM302.gsf.mb121.gz 32.80MB SAIC Generic Sensor Format (GSF)
0106_20170124_221247_EX1701_MB-EM302.gsf.mb121.gz 26.14MB SAIC Generic Sensor Format (GSF)
0107_20170124_223349_EX1701_MB-EM302.gsf.mb121.gz 33.06MB SAIC Generic Sensor Format (GSF)
0109_20170124_233345_EX1701_MB-EM302.gsf.mb121.gz 37.24MB SAIC Generic Sensor Format (GSF)
0110_20170125_003343_EX1701_MB-EM302.gsf.mb121.gz 24.47MB SAIC Generic Sensor Format (GSF)
0111_20170125_004453_EX1701_MB-EM302.gsf.mb121.gz 29.85MB SAIC Generic Sensor Format (GSF)
0112_20170125_014455_EX1701_MB-EM302.gsf.mb121.gz 23.97MB SAIC Generic Sensor Format (GSF)
0113_20170125_020443_EX1701_MB-EM302.gsf.mb121.gz 27.86MB SAIC Generic Sensor Format (GSF)
0114_20170125_024426_EX1701_MB-EM302.gsf.mb121.gz 41.93MB SAIC Generic Sensor Format (GSF)
0115_20170125_034423_EX1701_MB-EM302.gsf.mb121.gz 39.12MB SAIC Generic Sensor Format (GSF)
0116_20170125_044421_EX1701_MB-EM302.gsf.mb121.gz 17.66MB SAIC Generic Sensor Format (GSF)
0117_20170125_050443_EX1701_MB-EM302.gsf.mb121.gz 13.55MB SAIC Generic Sensor Format (GSF)
0118_20170125_050713_EX1701_MB-EM302.gsf.mb121.gz 31.73MB SAIC Generic Sensor Format (GSF)
0119_20170125_060706_EX1701_MB-EM302.gsf.mb121.gz 27.01MB SAIC Generic Sensor Format (GSF)
0120_20170125_064051_EX1701_MB-EM302.gsf.mb121.gz 13.35MB SAIC Generic Sensor Format (GSF)
0121_20170125_070123_EX1701_MB-EM302.gsf.mb121.gz 13.72MB SAIC Generic Sensor Format (GSF)
0122_20170125_070329_EX1701_MB-EM302.gsf.mb121.gz 33.08MB SAIC Generic Sensor Format (GSF)
0123_20170125_080330_EX1701_MB-EM302.gsf.mb121.gz 30.33MB SAIC Generic Sensor Format (GSF)
0124_20170125_084238_EX1701_MB-EM302.gsf.mb121.gz 22.49MB SAIC Generic Sensor Format (GSF)
0125_20170125_090352_EX1701_MB-EM302.gsf.mb121.gz 33.77MB SAIC Generic Sensor Format (GSF)
0126_20170125_100345_EX1701_MB-EM302.gsf.mb121.gz 27.05MB SAIC Generic Sensor Format (GSF)
0127_20170125_104044_EX1701_MB-EM302.gsf.mb121.gz 24.82MB SAIC Generic Sensor Format (GSF)
0128_20170125_110415_EX1701_MB-EM302.gsf.mb121.gz 34.20MB SAIC Generic Sensor Format (GSF)
0129_20170125_120414_EX1701_MB-EM302.gsf.mb121.gz 31.83MB SAIC Generic Sensor Format (GSF)
0130_20170125_124743_EX1701_MB-EM302.gsf.mb121.gz 25.46MB SAIC Generic Sensor Format (GSF)
0131_20170125_131142_EX1701_MB-EM302.gsf.mb121.gz 25.85MB SAIC Generic Sensor Format (GSF)
0132_20170125_141139_EX1701_MB-EM302.gsf.mb121.gz 10.94MB SAIC Generic Sensor Format (GSF)
0133_20170125_141351_EX1701_MB-EM302.gsf.mb121.gz 11.10MB SAIC Generic Sensor Format (GSF)
0134_20170125_141654_EX1701_MB-EM302.gsf.mb121.gz 33.65MB SAIC Generic Sensor Format (GSF)
0135_20170125_151656_EX1701_MB-EM302.gsf.mb121.gz 43.91MB SAIC Generic Sensor Format (GSF)
0136_20170125_161658_EX1701_MB-EM302.gsf.mb121.gz 47.13MB SAIC Generic Sensor Format (GSF)
0137_20170125_171659_EX1701_MB-EM302.gsf.mb121.gz 49.14MB SAIC Generic Sensor Format (GSF)
0138_20170125_181700_EX1701_MB-EM302.gsf.mb121.gz 46.99MB SAIC Generic Sensor Format (GSF)
0139_20170125_191657_EX1701_MB-EM302.gsf.mb121.gz 45.24MB SAIC Generic Sensor Format (GSF)
0140_20170125_201700_EX1701_MB-EM302.gsf.mb121.gz 45.20MB SAIC Generic Sensor Format (GSF)
0141_20170125_211655_EX1701_MB-EM302.gsf.mb121.gz 44.89MB SAIC Generic Sensor Format (GSF)
0142_20170125_221657_EX1701_MB-EM302.gsf.mb121.gz 44.41MB SAIC Generic Sensor Format (GSF)
0143_20170125_231658_EX1701_MB-EM302.gsf.mb121.gz 36.92MB SAIC Generic Sensor Format (GSF)
0144_20170126_001656_EX1701_MB-EM302.gsf.mb121.gz 12.50MB SAIC Generic Sensor Format (GSF)
0145_20170126_060800_EX1701_MB-EM302.gsf.mb121.gz 28.96MB SAIC Generic Sensor Format (GSF)
0146_20170126_070758_EX1701_MB-EM302.gsf.mb121.gz 40.17MB SAIC Generic Sensor Format (GSF)
0147_20170126_080759_EX1701_MB-EM302.gsf.mb121.gz 39.89MB SAIC Generic Sensor Format (GSF)
0148_20170126_090800_EX1701_MB-EM302.gsf.mb121.gz 39.86MB SAIC Generic Sensor Format (GSF)
0149_20170126_100755_EX1701_MB-EM302.gsf.mb121.gz 39.74MB SAIC Generic Sensor Format (GSF)
0150_20170126_110809_EX1701_MB-EM302.gsf.mb121.gz 39.53MB SAIC Generic Sensor Format (GSF)
0151_20170126_120759_EX1701_MB-EM302.gsf.mb121.gz 39.53MB SAIC Generic Sensor Format (GSF)
0152_20170126_130754_EX1701_MB-EM302.gsf.mb121.gz 39.58MB SAIC Generic Sensor Format (GSF)
0153_20170126_140802_EX1701_MB-EM302.gsf.mb121.gz 39.58MB SAIC Generic Sensor Format (GSF)
0154_20170126_150802_EX1701_MB-EM302.gsf.mb121.gz 39.62MB SAIC Generic Sensor Format (GSF)
0155_20170126_160801_EX1701_MB-EM302.gsf.mb121.gz 39.71MB SAIC Generic Sensor Format (GSF)
0156_20170126_170800_EX1701_MB-EM302.gsf.mb121.gz 38.98MB SAIC Generic Sensor Format (GSF)
0157_20170126_180757_EX1701_MB-EM302.gsf.mb121.gz 38.76MB SAIC Generic Sensor Format (GSF)
0158_20170126_190801_EX1701_MB-EM302.gsf.mb121.gz 38.77MB SAIC Generic Sensor Format (GSF)
0159_20170126_200801_EX1701_MB-EM302.gsf.mb121.gz 38.74MB SAIC Generic Sensor Format (GSF)
0160_20170126_210801_EX1701_MB-EM302.gsf.mb121.gz 38.63MB SAIC Generic Sensor Format (GSF)
0161_20170126_220803_EX1701_MB-EM302.gsf.mb121.gz 38.65MB SAIC Generic Sensor Format (GSF)
0162_20170126_230754_EX1701_MB-EM302.gsf.mb121.gz 35.00MB SAIC Generic Sensor Format (GSF)
0163_20170127_000802_EX1701_MB-EM302.gsf.mb121.gz 24.48MB SAIC Generic Sensor Format (GSF)
0164_20170127_004435_EX1701_MB-EM302.gsf.mb121.gz 21.64MB SAIC Generic Sensor Format (GSF)
0165_20170127_010435_EX1701_MB-EM302.gsf.mb121.gz 28.69MB SAIC Generic Sensor Format (GSF)
0166_20170127_020433_EX1701_MB-EM302.gsf.mb121.gz 23.22MB SAIC Generic Sensor Format (GSF)
0167_20170127_023611_EX1701_MB-EM302.gsf.mb121.gz 20.95MB SAIC Generic Sensor Format (GSF)
0168_20170127_025533_EX1701_MB-EM302.gsf.mb121.gz 29.06MB SAIC Generic Sensor Format (GSF)
0169_20170127_035535_EX1701_MB-EM302.gsf.mb121.gz 24.61MB SAIC Generic Sensor Format (GSF)
0170_20170127_042735_EX1701_MB-EM302.gsf.mb121.gz 21.98MB SAIC Generic Sensor Format (GSF)
0171_20170127_044909_EX1701_MB-EM302.gsf.mb121.gz 32.43MB SAIC Generic Sensor Format (GSF)
0172_20170127_054919_EX1701_MB-EM302.gsf.mb121.gz 25.82MB SAIC Generic Sensor Format (GSF)
0173_20170127_062349_EX1701_MB-EM302.gsf.mb121.gz 21.94MB SAIC Generic Sensor Format (GSF)
0174_20170127_064419_EX1701_MB-EM302.gsf.mb121.gz 28.91MB SAIC Generic Sensor Format (GSF)
0175_20170127_074434_EX1701_MB-EM302.gsf.mb121.gz 22.66MB SAIC Generic Sensor Format (GSF)
0176_20170127_081139_EX1701_MB-EM302.gsf.mb121.gz 20.60MB SAIC Generic Sensor Format (GSF)
0177_20170127_083143_EX1701_MB-EM302.gsf.mb121.gz 27.52MB SAIC Generic Sensor Format (GSF)
0178_20170127_093136_EX1701_MB-EM302.gsf.mb121.gz 19.45MB SAIC Generic Sensor Format (GSF)
0179_20170127_095834_EX1701_MB-EM302.gsf.mb121.gz 13.29MB SAIC Generic Sensor Format (GSF)
0180_20170127_100338_EX1701_MB-EM302.gsf.mb121.gz 15.77MB SAIC Generic Sensor Format (GSF)
0181_20170127_111254_EX1701_MB-EM302.gsf.mb121.gz 29.03MB SAIC Generic Sensor Format (GSF)
0182_20170127_121259_EX1701_MB-EM302.gsf.mb121.gz 38.66MB SAIC Generic Sensor Format (GSF)
0183_20170127_131254_EX1701_MB-EM302.gsf.mb121.gz 38.54MB SAIC Generic Sensor Format (GSF)
0184_20170127_141259_EX1701_MB-EM302.gsf.mb121.gz 38.52MB SAIC Generic Sensor Format (GSF)
0185_20170127_151259_EX1701_MB-EM302.gsf.mb121.gz 38.44MB SAIC Generic Sensor Format (GSF)
0186_20170127_161259_EX1701_MB-EM302.gsf.mb121.gz 38.43MB SAIC Generic Sensor Format (GSF)
0187_20170127_171255_EX1701_MB-EM302.gsf.mb121.gz 37.18MB SAIC Generic Sensor Format (GSF)
0188_20170127_181300_EX1701_MB-EM302.gsf.mb121.gz 32.53MB SAIC Generic Sensor Format (GSF)
0189_20170127_190504_EX1701_MB-EM302.gsf.mb121.gz 30.78MB SAIC Generic Sensor Format (GSF)
0190_20170127_194406_EX1701_MB-EM302.gsf.mb121.gz 35.29MB SAIC Generic Sensor Format (GSF)
0191_20170127_204359_EX1701_MB-EM302.gsf.mb121.gz 29.55MB SAIC Generic Sensor Format (GSF)
0192_20170127_213123_EX1701_MB-EM302.gsf.mb121.gz 16.93MB SAIC Generic Sensor Format (GSF)
0193_20170127_215018_EX1701_MB-EM302.gsf.mb121.gz 18.62MB SAIC Generic Sensor Format (GSF)
0194_20170127_220708_EX1701_MB-EM302.gsf.mb121.gz 30.19MB SAIC Generic Sensor Format (GSF)
0195_20170127_230708_EX1701_MB-EM302.gsf.mb121.gz 23.79MB SAIC Generic Sensor Format (GSF)
0196_20170127_233703_EX1701_MB-EM302.gsf.mb121.gz 21.76MB SAIC Generic Sensor Format (GSF)
0197_20170127_235822_EX1701_MB-EM302.gsf.mb121.gz 34.31MB SAIC Generic Sensor Format (GSF)
0198_20170128_005820_EX1701_MB-EM302.gsf.mb121.gz 30.46MB SAIC Generic Sensor Format (GSF)
0199_20170128_014404_EX1701_MB-EM302.gsf.mb121.gz 23.33MB SAIC Generic Sensor Format (GSF)
0200_20170128_020146_EX1701_MB-EM302.gsf.mb121.gz 32.75MB SAIC Generic Sensor Format (GSF)
0201_20170128_030143_EX1701_MB-EM302.gsf.mb121.gz 30.98MB SAIC Generic Sensor Format (GSF)
0202_20170128_034656_EX1701_MB-EM302.gsf.mb121.gz 17.67MB SAIC Generic Sensor Format (GSF)
0203_20170128_041034_EX1701_MB-EM302.gsf.mb121.gz 18.69MB SAIC Generic Sensor Format (GSF)
0204_20170128_042620_EX1701_MB-EM302.gsf.mb121.gz 28.81MB SAIC Generic Sensor Format (GSF)
0205_20170128_052616_EX1701_MB-EM302.gsf.mb121.gz 23.79MB SAIC Generic Sensor Format (GSF)
0206_20170128_055907_EX1701_MB-EM302.gsf.mb121.gz 20.41MB SAIC Generic Sensor Format (GSF)
0207_20170128_061556_EX1701_MB-EM302.gsf.mb121.gz 26.93MB SAIC Generic Sensor Format (GSF)
0208_20170128_071600_EX1701_MB-EM302.gsf.mb121.gz 28.50MB SAIC Generic Sensor Format (GSF)
0209_20170128_074430_EX1701_MB-EM302.gsf.mb121.gz 33.83MB SAIC Generic Sensor Format (GSF)
0210_20170128_084429_EX1701_MB-EM302.gsf.mb121.gz 38.74MB SAIC Generic Sensor Format (GSF)
0211_20170128_094427_EX1701_MB-EM302.gsf.mb121.gz 39.04MB SAIC Generic Sensor Format (GSF)
0212_20170128_104428_EX1701_MB-EM302.gsf.mb121.gz 41.29MB SAIC Generic Sensor Format (GSF)
0213_20170128_114427_EX1701_MB-EM302.gsf.mb121.gz 40.89MB SAIC Generic Sensor Format (GSF)
0214_20170128_124428_EX1701_MB-EM302.gsf.mb121.gz 32.37MB SAIC Generic Sensor Format (GSF)
0215_20170128_134430_EX1701_MB-EM302.gsf.mb121.gz 24.80MB SAIC Generic Sensor Format (GSF)
0216_20170128_140134_EX1701_MB-EM302.gsf.mb121.gz 28.93MB SAIC Generic Sensor Format (GSF)
0217_20170128_150139_EX1701_MB-EM302.gsf.mb121.gz 26.76MB SAIC Generic Sensor Format (GSF)
0218_20170128_154058_EX1701_MB-EM302.gsf.mb121.gz 23.20MB SAIC Generic Sensor Format (GSF)
0219_20170128_160253_EX1701_MB-EM302.gsf.mb121.gz 31.88MB SAIC Generic Sensor Format (GSF)
0220_20170128_170250_EX1701_MB-EM302.gsf.mb121.gz 28.22MB SAIC Generic Sensor Format (GSF)
0221_20170128_174542_EX1701_MB-EM302.gsf.mb121.gz 23.14MB SAIC Generic Sensor Format (GSF)
0222_20170128_180423_EX1701_MB-EM302.gsf.mb121.gz 33.67MB SAIC Generic Sensor Format (GSF)
0223_20170128_190416_EX1701_MB-EM302.gsf.mb121.gz 28.86MB SAIC Generic Sensor Format (GSF)
0224_20170128_194638_EX1701_MB-EM302.gsf.mb121.gz 22.95MB SAIC Generic Sensor Format (GSF)
0225_20170128_200503_EX1701_MB-EM302.gsf.mb121.gz 34.81MB SAIC Generic Sensor Format (GSF)
0226_20170128_210458_EX1701_MB-EM302.gsf.mb121.gz 28.57MB SAIC Generic Sensor Format (GSF)
0227_20170128_214847_EX1701_MB-EM302.gsf.mb121.gz 23.15MB SAIC Generic Sensor Format (GSF)
0228_20170128_220747_EX1701_MB-EM302.gsf.mb121.gz 30.66MB SAIC Generic Sensor Format (GSF)
0229_20170128_230753_EX1701_MB-EM302.gsf.mb121.gz 33.72MB SAIC Generic Sensor Format (GSF)
0230_20170128_234828_EX1701_MB-EM302.gsf.mb121.gz 36.30MB SAIC Generic Sensor Format (GSF)
0231_20170129_004821_EX1701_MB-EM302.gsf.mb121.gz 33.02MB SAIC Generic Sensor Format (GSF)
0232_20170129_014820_EX1701_MB-EM302.gsf.mb121.gz 26.85MB SAIC Generic Sensor Format (GSF)
0233_20170129_021202_EX1701_MB-EM302.gsf.mb121.gz 31.16MB SAIC Generic Sensor Format (GSF)
0234_20170129_031158_EX1701_MB-EM302.gsf.mb121.gz 27.74MB SAIC Generic Sensor Format (GSF)
0235_20170129_035535_EX1701_MB-EM302.gsf.mb121.gz 23.95MB SAIC Generic Sensor Format (GSF)
0236_20170129_041710_EX1701_MB-EM302.gsf.mb121.gz 32.65MB SAIC Generic Sensor Format (GSF)
0237_20170129_051714_EX1701_MB-EM302.gsf.mb121.gz 31.74MB SAIC Generic Sensor Format (GSF)
0238_20170129_061230_EX1701_MB-EM302.gsf.mb121.gz 13.58MB SAIC Generic Sensor Format (GSF)
0239_20170129_062411_EX1701_MB-EM302.gsf.mb121.gz 13.07MB SAIC Generic Sensor Format (GSF)
0240_20170129_062838_EX1701_MB-EM302.gsf.mb121.gz 33.05MB SAIC Generic Sensor Format (GSF)
0241_20170129_072834_EX1701_MB-EM302.gsf.mb121.gz 34.01MB SAIC Generic Sensor Format (GSF)
0242_20170129_082830_EX1701_MB-EM302.gsf.mb121.gz 24.59MB SAIC Generic Sensor Format (GSF)
0243_20170129_084342_EX1701_MB-EM302.gsf.mb121.gz 36.18MB SAIC Generic Sensor Format (GSF)
0244_20170129_094335_EX1701_MB-EM302.gsf.mb121.gz 35.78MB SAIC Generic Sensor Format (GSF)
0245_20170129_104339_EX1701_MB-EM302.gsf.mb121.gz 14.59MB SAIC Generic Sensor Format (GSF)
0246_20170129_105002_EX1701_MB-EM302.gsf.mb121.gz 16.01MB SAIC Generic Sensor Format (GSF)
0247_20170129_110557_EX1701_MB-EM302.gsf.mb121.gz 33.00MB SAIC Generic Sensor Format (GSF)
0248_20170129_120554_EX1701_MB-EM302.gsf.mb121.gz 35.26MB SAIC Generic Sensor Format (GSF)
0249_20170129_130556_EX1701_MB-EM302.gsf.mb121.gz 16.58MB SAIC Generic Sensor Format (GSF)
0250_20170129_132134_EX1701_MB-EM302.gsf.mb121.gz 12.94MB SAIC Generic Sensor Format (GSF)
0251_20170129_132848_EX1701_MB-EM302.gsf.mb121.gz 18.74MB SAIC Generic Sensor Format (GSF)
0252_20170129_141734_EX1701_MB-EM302.gsf.mb121.gz 19.07MB SAIC Generic Sensor Format (GSF)
0253_20170129_142223_EX1701_MB-EM302.gsf.mb121.gz 32.14MB SAIC Generic Sensor Format (GSF)
0254_20170129_152225_EX1701_MB-EM302.gsf.mb121.gz 40.67MB SAIC Generic Sensor Format (GSF)
0255_20170129_162222_EX1701_MB-EM302.gsf.mb121.gz 40.27MB SAIC Generic Sensor Format (GSF)
0256_20170129_172222_EX1701_MB-EM302.gsf.mb121.gz 40.84MB SAIC Generic Sensor Format (GSF)
0257_20170129_182220_EX1701_MB-EM302.gsf.mb121.gz 42.91MB SAIC Generic Sensor Format (GSF)
0258_20170129_192219_EX1701_MB-EM302.gsf.mb121.gz 39.69MB SAIC Generic Sensor Format (GSF)
0259_20170129_202222_EX1701_MB-EM302.gsf.mb121.gz 39.26MB SAIC Generic Sensor Format (GSF)
0260_20170129_211038_EX1701_MB-EM302.gsf.mb121.gz 40.49MB SAIC Generic Sensor Format (GSF)
0261_20170129_221032_EX1701_MB-EM302.gsf.mb121.gz 40.88MB SAIC Generic Sensor Format (GSF)
0262_20170129_231036_EX1701_MB-EM302.gsf.mb121.gz 41.82MB SAIC Generic Sensor Format (GSF)
0263_20170130_001036_EX1701_MB-EM302.gsf.mb121.gz 43.14MB SAIC Generic Sensor Format (GSF)
0264_20170130_011035_EX1701_MB-EM302.gsf.mb121.gz 40.95MB SAIC Generic Sensor Format (GSF)
0265_20170130_021032_EX1701_MB-EM302.gsf.mb121.gz 39.64MB SAIC Generic Sensor Format (GSF)
0266_20170130_031036_EX1701_MB-EM302.gsf.mb121.gz 41.16MB SAIC Generic Sensor Format (GSF)
0267_20170130_041032_EX1701_MB-EM302.gsf.mb121.gz 44.52MB SAIC Generic Sensor Format (GSF)
0268_20170130_051035_EX1701_MB-EM302.gsf.mb121.gz 43.27MB SAIC Generic Sensor Format (GSF)
0269_20170130_061032_EX1701_MB-EM302.gsf.mb121.gz 45.62MB SAIC Generic Sensor Format (GSF)
0270_20170130_071035_EX1701_MB-EM302.gsf.mb121.gz 43.93MB SAIC Generic Sensor Format (GSF)
0271_20170130_081034_EX1701_MB-EM302.gsf.mb121.gz 42.72MB SAIC Generic Sensor Format (GSF)
0272_20170130_091037_EX1701_MB-EM302.gsf.mb121.gz 45.94MB SAIC Generic Sensor Format (GSF)
0273_20170130_101035_EX1701_MB-EM302.gsf.mb121.gz 44.50MB SAIC Generic Sensor Format (GSF)
0274_20170130_111039_EX1701_MB-EM302.gsf.mb121.gz 41.37MB SAIC Generic Sensor Format (GSF)
0275_20170130_121038_EX1701_MB-EM302.gsf.mb121.gz 41.73MB SAIC Generic Sensor Format (GSF)
0276_20170130_131032_EX1701_MB-EM302.gsf.mb121.gz 40.08MB SAIC Generic Sensor Format (GSF)
0277_20170130_141034_EX1701_MB-EM302.gsf.mb121.gz 39.29MB SAIC Generic Sensor Format (GSF)
0278_20170130_151036_EX1701_MB-EM302.gsf.mb121.gz 39.00MB SAIC Generic Sensor Format (GSF)
0279_20170130_161033_EX1701_MB-EM302.gsf.mb121.gz 39.96MB SAIC Generic Sensor Format (GSF)
0280_20170130_171033_EX1701_MB-EM302.gsf.mb121.gz 40.65MB SAIC Generic Sensor Format (GSF)
0281_20170130_181035_EX1701_MB-EM302.gsf.mb121.gz 39.95MB SAIC Generic Sensor Format (GSF)
0282_20170130_191040_EX1701_MB-EM302.gsf.mb121.gz 39.22MB SAIC Generic Sensor Format (GSF)
0283_20170130_201041_EX1701_MB-EM302.gsf.mb121.gz 38.56MB SAIC Generic Sensor Format (GSF)
0284_20170130_211042_EX1701_MB-EM302.gsf.mb121.gz 37.42MB SAIC Generic Sensor Format (GSF)
0285_20170130_220517_EX1701_MB-EM302.gsf.mb121.gz 38.45MB SAIC Generic Sensor Format (GSF)
0286_20170130_230516_EX1701_MB-EM302.gsf.mb121.gz 38.68MB SAIC Generic Sensor Format (GSF)
0287_20170131_000526_EX1701_MB-EM302.gsf.mb121.gz 33.24MB SAIC Generic Sensor Format (GSF)
0288_20170131_010519_EX1701_MB-EM302.gsf.mb121.gz 25.34MB SAIC Generic Sensor Format (GSF)
0289_20170131_012939_EX1701_MB-EM302.gsf.mb121.gz 30.82MB SAIC Generic Sensor Format (GSF)
0290_20170131_022019_EX1701_MB-EM302.gsf.mb121.gz 31.98MB SAIC Generic Sensor Format (GSF)
0291_20170131_032015_EX1701_MB-EM302.gsf.mb121.gz 25.26MB SAIC Generic Sensor Format (GSF)
0292_20170131_033648_EX1701_MB-EM302.gsf.mb121.gz 34.27MB SAIC Generic Sensor Format (GSF)
0293_20170131_043653_EX1701_MB-EM302.gsf.mb121.gz 41.67MB SAIC Generic Sensor Format (GSF)
0294_20170131_053651_EX1701_MB-EM302.gsf.mb121.gz 41.18MB SAIC Generic Sensor Format (GSF)
0295_20170131_063652_EX1701_MB-EM302.gsf.mb121.gz 40.38MB SAIC Generic Sensor Format (GSF)
0296_20170131_073652_EX1701_MB-EM302.gsf.mb121.gz 39.98MB SAIC Generic Sensor Format (GSF)
0297_20170131_083652_EX1701_MB-EM302.gsf.mb121.gz 39.69MB SAIC Generic Sensor Format (GSF)
0298_20170131_093653_EX1701_MB-EM302.gsf.mb121.gz 39.11MB SAIC Generic Sensor Format (GSF)
0299_20170131_103653_EX1701_MB-EM302.gsf.mb121.gz 38.78MB SAIC Generic Sensor Format (GSF)
0300_20170131_113649_EX1701_MB-EM302.gsf.mb121.gz 35.74MB SAIC Generic Sensor Format (GSF)
0301_20170131_123653_EX1701_MB-EM302.gsf.mb121.gz 32.61MB SAIC Generic Sensor Format (GSF)
0302_20170131_132026_EX1701_MB-EM302.gsf.mb121.gz 30.00MB SAIC Generic Sensor Format (GSF)
0303_20170131_142021_EX1701_MB-EM302.gsf.mb121.gz 33.35MB SAIC Generic Sensor Format (GSF)
0304_20170131_151024_EX1701_MB-EM302.gsf.mb121.gz 36.01MB SAIC Generic Sensor Format (GSF)
0305_20170131_161023_EX1701_MB-EM302.gsf.mb121.gz 37.58MB SAIC Generic Sensor Format (GSF)
0306_20170131_171017_EX1701_MB-EM302.gsf.mb121.gz 38.06MB SAIC Generic Sensor Format (GSF)
0307_20170131_181023_EX1701_MB-EM302.gsf.mb121.gz 28.52MB SAIC Generic Sensor Format (GSF)
0308_20170131_191024_EX1701_MB-EM302.gsf.mb121.gz 28.85MB SAIC Generic Sensor Format (GSF)
0309_20170131_201019_EX1701_MB-EM302.gsf.mb121.gz 38.64MB SAIC Generic Sensor Format (GSF)
0310_20170131_211024_EX1701_MB-EM302.gsf.mb121.gz 35.83MB SAIC Generic Sensor Format (GSF)
0311_20170131_221018_EX1701_MB-EM302.gsf.mb121.gz 33.55MB SAIC Generic Sensor Format (GSF)
0312_20170131_225208_EX1701_MB-EM302.gsf.mb121.gz 34.81MB SAIC Generic Sensor Format (GSF)
0313_20170131_235213_EX1701_MB-EM302.gsf.mb121.gz 37.60MB SAIC Generic Sensor Format (GSF)
0314_20170201_005206_EX1701_MB-EM302.gsf.mb121.gz 37.46MB SAIC Generic Sensor Format (GSF)
0315_20170201_015213_EX1701_MB-EM302.gsf.mb121.gz 38.71MB SAIC Generic Sensor Format (GSF)
0316_20170201_025209_EX1701_MB-EM302.gsf.mb121.gz 38.74MB SAIC Generic Sensor Format (GSF)
0317_20170201_035210_EX1701_MB-EM302.gsf.mb121.gz 39.26MB SAIC Generic Sensor Format (GSF)
0318_20170201_045214_EX1701_MB-EM302.gsf.mb121.gz 38.95MB SAIC Generic Sensor Format (GSF)
0319_20170201_055213_EX1701_MB-EM302.gsf.mb121.gz 38.52MB SAIC Generic Sensor Format (GSF)
0320_20170201_065212_EX1701_MB-EM302.gsf.mb121.gz 32.19MB SAIC Generic Sensor Format (GSF)
0321_20170201_075211_EX1701_MB-EM302.gsf.mb121.gz 16.81MB SAIC Generic Sensor Format (GSF)
0322_20170201_081315_EX1701_MB-EM302.gsf.mb121.gz 14.11MB SAIC Generic Sensor Format (GSF)
0323_20170201_081649_EX1701_MB-EM302.gsf.mb121.gz 31.02MB SAIC Generic Sensor Format (GSF)
0324_20170201_091645_EX1701_MB-EM302.gsf.mb121.gz 40.16MB SAIC Generic Sensor Format (GSF)
0325_20170201_101650_EX1701_MB-EM302.gsf.mb121.gz 38.59MB SAIC Generic Sensor Format (GSF)
0326_20170201_111645_EX1701_MB-EM302.gsf.mb121.gz 38.14MB SAIC Generic Sensor Format (GSF)
0327_20170201_121647_EX1701_MB-EM302.gsf.mb121.gz 38.14MB SAIC Generic Sensor Format (GSF)
0328_20170201_131651_EX1701_MB-EM302.gsf.mb121.gz 38.21MB SAIC Generic Sensor Format (GSF)
0329_20170201_141650_EX1701_MB-EM302.gsf.mb121.gz 33.67MB SAIC Generic Sensor Format (GSF)
0330_20170201_151651_EX1701_MB-EM302.gsf.mb121.gz 28.83MB SAIC Generic Sensor Format (GSF)
0331_20170201_154512_EX1701_MB-EM302.gsf.mb121.gz 30.82MB SAIC Generic Sensor Format (GSF)
0332_20170201_164510_EX1701_MB-EM302.gsf.mb121.gz 25.22MB SAIC Generic Sensor Format (GSF)
0333_20170201_170836_EX1701_MB-EM302.gsf.mb121.gz 23.04MB SAIC Generic Sensor Format (GSF)
0334_20170201_174542_EX1701_MB-EM302.gsf.mb121.gz 20.24MB SAIC Generic Sensor Format (GSF)
0335_20170201_181927_EX1701_MB-EM302.gsf.mb121.gz 2.08MB SAIC Generic Sensor Format (GSF)
0336_20170201_204510_EX1701_MB-EM302.gsf.mb121.gz 28.65MB SAIC Generic Sensor Format (GSF)
0338_20170201_221603_EX1701_MB-EM302.gsf.mb121.gz 36.52MB SAIC Generic Sensor Format (GSF)
0339_20170201_231603_EX1701_MB-EM302.gsf.mb121.gz 37.75MB SAIC Generic Sensor Format (GSF)
0340_20170202_001603_EX1701_MB-EM302.gsf.mb121.gz 19.71MB SAIC Generic Sensor Format (GSF)
0341_20170202_001708_EX1701_MB-EM302.gsf.mb121.gz 35.91MB SAIC Generic Sensor Format (GSF)
0342_20170202_011712_EX1701_MB-EM302.gsf.mb121.gz 43.01MB SAIC Generic Sensor Format (GSF)
0343_20170202_021711_EX1701_MB-EM302.gsf.mb121.gz 42.25MB SAIC Generic Sensor Format (GSF)
0344_20170202_031711_EX1701_MB-EM302.gsf.mb121.gz 43.34MB SAIC Generic Sensor Format (GSF)
0345_20170202_041708_EX1701_MB-EM302.gsf.mb121.gz 43.75MB SAIC Generic Sensor Format (GSF)
0346_20170202_051712_EX1701_MB-EM302.gsf.mb121.gz 44.26MB SAIC Generic Sensor Format (GSF)
0347_20170202_061707_EX1701_MB-EM302.gsf.mb121.gz 41.40MB SAIC Generic Sensor Format (GSF)
0348_20170202_071711_EX1701_MB-EM302.gsf.mb121.gz 36.00MB SAIC Generic Sensor Format (GSF)
0349_20170202_081709_EX1701_MB-EM302.gsf.mb121.gz 22.83MB SAIC Generic Sensor Format (GSF)
0350_20170202_085659_EX1701_MB-EM302.gsf.mb121.gz 17.14MB SAIC Generic Sensor Format (GSF)
0351_20170202_090048_EX1701_MB-EM302.gsf.mb121.gz 29.56MB SAIC Generic Sensor Format (GSF)
0352_20170202_100039_EX1701_MB-EM302.gsf.mb121.gz 37.90MB SAIC Generic Sensor Format (GSF)
0353_20170202_110044_EX1701_MB-EM302.gsf.mb121.gz 27.76MB SAIC Generic Sensor Format (GSF)
0354_20170202_120053_EX1701_MB-EM302.gsf.mb121.gz 15.74MB SAIC Generic Sensor Format (GSF)
0355_20170202_120451_EX1701_MB-EM302.gsf.mb121.gz 20.41MB SAIC Generic Sensor Format (GSF)
0356_20170202_123652_EX1701_MB-EM302.gsf.mb121.gz 34.57MB SAIC Generic Sensor Format (GSF)
0357_20170202_133652_EX1701_MB-EM302.gsf.mb121.gz 31.60MB SAIC Generic Sensor Format (GSF)
0358_20170202_143650_EX1701_MB-EM302.gsf.mb121.gz 13.44MB SAIC Generic Sensor Format (GSF)
0359_20170202_144049_EX1701_MB-EM302.gsf.mb121.gz 15.29MB SAIC Generic Sensor Format (GSF)
0360_20170202_145612_EX1701_MB-EM302.gsf.mb121.gz 27.18MB SAIC Generic Sensor Format (GSF)
0361_20170202_155616_EX1701_MB-EM302.gsf.mb121.gz 24.26MB SAIC Generic Sensor Format (GSF)
0362_20170202_163131_EX1701_MB-EM302.gsf.mb121.gz 22.44MB SAIC Generic Sensor Format (GSF)
0363_20170202_165320_EX1701_MB-EM302.gsf.mb121.gz 24.04MB SAIC Generic Sensor Format (GSF)
0364_20170202_175326_EX1701_MB-EM302.gsf.mb121.gz 18.05MB SAIC Generic Sensor Format (GSF)
0365_20170202_175753_EX1701_MB-EM302.gsf.mb121.gz 24.80MB SAIC Generic Sensor Format (GSF)
0366_20170202_184107_EX1701_MB-EM302.gsf.mb121.gz 37.84MB SAIC Generic Sensor Format (GSF)
0367_20170202_194103_EX1701_MB-EM302.gsf.mb121.gz 35.44MB SAIC Generic Sensor Format (GSF)
0368_20170202_204102_EX1701_MB-EM302.gsf.mb121.gz 11.57MB SAIC Generic Sensor Format (GSF)
0369_20170203_002004_EX1701_MB-EM302.gsf.mb121.gz 31.85MB SAIC Generic Sensor Format (GSF)
0370_20170203_012007_EX1701_MB-EM302.gsf.mb121.gz 32.52MB SAIC Generic Sensor Format (GSF)
0371_20170203_022008_EX1701_MB-EM302.gsf.mb121.gz 25.80MB SAIC Generic Sensor Format (GSF)
0372_20170203_024255_EX1701_MB-EM302.gsf.mb121.gz 31.30MB SAIC Generic Sensor Format (GSF)
0373_20170203_033935_EX1701_MB-EM302.gsf.mb121.gz 37.45MB SAIC Generic Sensor Format (GSF)
0374_20170203_043941_EX1701_MB-EM302.gsf.mb121.gz 31.39MB SAIC Generic Sensor Format (GSF)
0375_20170203_053937_EX1701_MB-EM302.gsf.mb121.gz 16.42MB SAIC Generic Sensor Format (GSF)
0376_20170203_060023_EX1701_MB-EM302.gsf.mb121.gz 13.84MB SAIC Generic Sensor Format (GSF)
0377_20170203_060314_EX1701_MB-EM302.gsf.mb121.gz 23.48MB SAIC Generic Sensor Format (GSF)
0378_20170203_070316_EX1701_MB-EM302.gsf.mb121.gz 18.18MB SAIC Generic Sensor Format (GSF)
0379_20170203_072736_EX1701_MB-EM302.gsf.mb121.gz 14.88MB SAIC Generic Sensor Format (GSF)
0380_20170203_073149_EX1701_MB-EM302.gsf.mb121.gz 29.47MB SAIC Generic Sensor Format (GSF)
0381_20170203_083149_EX1701_MB-EM302.gsf.mb121.gz 38.08MB SAIC Generic Sensor Format (GSF)
0382_20170203_093147_EX1701_MB-EM302.gsf.mb121.gz 34.86MB SAIC Generic Sensor Format (GSF)
0383_20170203_103152_EX1701_MB-EM302.gsf.mb121.gz 22.91MB SAIC Generic Sensor Format (GSF)
0384_20170203_111154_EX1701_MB-EM302.gsf.mb121.gz 17.45MB SAIC Generic Sensor Format (GSF)
0385_20170203_111617_EX1701_MB-EM302.gsf.mb121.gz 23.92MB SAIC Generic Sensor Format (GSF)
0386_20170203_121621_EX1701_MB-EM302.gsf.mb121.gz 18.42MB SAIC Generic Sensor Format (GSF)
0387_20170203_124155_EX1701_MB-EM302.gsf.mb121.gz 14.98MB SAIC Generic Sensor Format (GSF)
0388_20170203_124600_EX1701_MB-EM302.gsf.mb121.gz 28.40MB SAIC Generic Sensor Format (GSF)
0389_20170203_134602_EX1701_MB-EM302.gsf.mb121.gz 32.20MB SAIC Generic Sensor Format (GSF)
0390_20170203_144554_EX1701_MB-EM302.gsf.mb121.gz 20.33MB SAIC Generic Sensor Format (GSF)
0391_20170203_151139_EX1701_MB-EM302.gsf.mb121.gz 18.90MB SAIC Generic Sensor Format (GSF)
0392_20170203_152916_EX1701_MB-EM302.gsf.mb121.gz 29.45MB SAIC Generic Sensor Format (GSF)
0393_20170203_162911_EX1701_MB-EM302.gsf.mb121.gz 31.35MB SAIC Generic Sensor Format (GSF)
0394_20170203_172909_EX1701_MB-EM302.gsf.mb121.gz 25.93MB SAIC Generic Sensor Format (GSF)
0395_20170203_175056_EX1701_MB-EM302.gsf.mb121.gz 23.15MB SAIC Generic Sensor Format (GSF)
0396_20170203_185054_EX1701_MB-EM302.gsf.mb121.gz 19.94MB SAIC Generic Sensor Format (GSF)
0397_20170203_185922_EX1701_MB-EM302.gsf.mb121.gz 26.44MB SAIC Generic Sensor Format (GSF)
0398_20170203_194719_EX1701_MB-EM302.gsf.mb121.gz 38.17MB SAIC Generic Sensor Format (GSF)
0399_20170203_204713_EX1701_MB-EM302.gsf.mb121.gz 36.44MB SAIC Generic Sensor Format (GSF)
0400_20170203_214713_EX1701_MB-EM302.gsf.mb121.gz 23.90MB SAIC Generic Sensor Format (GSF)
0401_20170203_220219_EX1701_MB-EM302.gsf.mb121.gz 31.44MB SAIC Generic Sensor Format (GSF)
0402_20170203_225130_EX1701_MB-EM302.gsf.mb121.gz 36.87MB SAIC Generic Sensor Format (GSF)
0403_20170203_235136_EX1701_MB-EM302.gsf.mb121.gz 37.25MB SAIC Generic Sensor Format (GSF)
0404_20170204_005140_EX1701_MB-EM302.gsf.mb121.gz 34.50MB SAIC Generic Sensor Format (GSF)
0405_20170204_015130_EX1701_MB-EM302.gsf.mb121.gz 24.64MB SAIC Generic Sensor Format (GSF)
0406_20170204_023341_EX1701_MB-EM302.gsf.mb121.gz 18.27MB SAIC Generic Sensor Format (GSF)
0407_20170204_023927_EX1701_MB-EM302.gsf.mb121.gz 28.79MB SAIC Generic Sensor Format (GSF)
0408_20170204_033925_EX1701_MB-EM302.gsf.mb121.gz 32.60MB SAIC Generic Sensor Format (GSF)
0409_20170204_041633_EX1701_MB-EM302.gsf.mb121.gz 36.49MB SAIC Generic Sensor Format (GSF)
0410_20170204_051630_EX1701_MB-EM302.gsf.mb121.gz 39.89MB SAIC Generic Sensor Format (GSF)
0411_20170204_061631_EX1701_MB-EM302.gsf.mb121.gz 40.27MB SAIC Generic Sensor Format (GSF)
0412_20170204_071635_EX1701_MB-EM302.gsf.mb121.gz 31.17MB SAIC Generic Sensor Format (GSF)
0413_20170204_080921_EX1701_MB-EM302.gsf.mb121.gz 15.23MB SAIC Generic Sensor Format (GSF)
0414_20170204_081143_EX1701_MB-EM302.gsf.mb121.gz 23.74MB SAIC Generic Sensor Format (GSF)
0415_20170204_084837_EX1701_MB-EM302.gsf.mb121.gz 35.61MB SAIC Generic Sensor Format (GSF)
0416_20170204_094835_EX1701_MB-EM302.gsf.mb121.gz 38.41MB SAIC Generic Sensor Format (GSF)
0417_20170204_104844_EX1701_MB-EM302.gsf.mb121.gz 33.81MB SAIC Generic Sensor Format (GSF)
0418_20170204_114843_EX1701_MB-EM302.gsf.mb121.gz 20.78MB SAIC Generic Sensor Format (GSF)
0419_20170204_122056_EX1701_MB-EM302.gsf.mb121.gz 15.43MB SAIC Generic Sensor Format (GSF)
0420_20170204_122234_EX1701_MB-EM302.gsf.mb121.gz 35.07MB SAIC Generic Sensor Format (GSF)
0421_20170204_132228_EX1701_MB-EM302.gsf.mb121.gz 39.75MB SAIC Generic Sensor Format (GSF)
0422_20170204_142237_EX1701_MB-EM302.gsf.mb121.gz 37.87MB SAIC Generic Sensor Format (GSF)
0423_20170204_152234_EX1701_MB-EM302.gsf.mb121.gz 37.74MB SAIC Generic Sensor Format (GSF)
0424_20170204_162238_EX1701_MB-EM302.gsf.mb121.gz 37.68MB SAIC Generic Sensor Format (GSF)
0425_20170204_172235_EX1701_MB-EM302.gsf.mb121.gz 40.03MB SAIC Generic Sensor Format (GSF)
0426_20170204_182229_EX1701_MB-EM302.gsf.mb121.gz 38.55MB SAIC Generic Sensor Format (GSF)
0427_20170204_192231_EX1701_MB-EM302.gsf.mb121.gz 36.61MB SAIC Generic Sensor Format (GSF)
0428_20170204_201020_EX1701_MB-EM302.gsf.mb121.gz 30.82MB SAIC Generic Sensor Format (GSF)
0429_20170204_211022_EX1701_MB-EM302.gsf.mb121.gz 20.06MB SAIC Generic Sensor Format (GSF)
0430_20170204_212712_EX1701_MB-EM302.gsf.mb121.gz 16.48MB SAIC Generic Sensor Format (GSF)
0431_20170204_215701_EX1701_MB-EM302.gsf.mb121.gz 20.96MB SAIC Generic Sensor Format (GSF)
0432_20170204_221429_EX1701_MB-EM302.gsf.mb121.gz 32.99MB SAIC Generic Sensor Format (GSF)
0433_20170204_231424_EX1701_MB-EM302.gsf.mb121.gz 35.60MB SAIC Generic Sensor Format (GSF)
0434_20170205_001424_EX1701_MB-EM302.gsf.mb121.gz 28.20MB SAIC Generic Sensor Format (GSF)
0435_20170205_004345_EX1701_MB-EM302.gsf.mb121.gz 31.74MB SAIC Generic Sensor Format (GSF)
0436_20170205_012952_EX1701_MB-EM302.gsf.mb121.gz 30.72MB SAIC Generic Sensor Format (GSF)
0437_20170205_020334_EX1701_MB-EM302.gsf.mb121.gz 39.72MB SAIC Generic Sensor Format (GSF)
0438_20170205_030337_EX1701_MB-EM302.gsf.mb121.gz 38.73MB SAIC Generic Sensor Format (GSF)
0439_20170205_040334_EX1701_MB-EM302.gsf.mb121.gz 36.42MB SAIC Generic Sensor Format (GSF)
0440_20170205_050334_EX1701_MB-EM302.gsf.mb121.gz 35.98MB SAIC Generic Sensor Format (GSF)
0441_20170205_055930_EX1701_MB-EM302.gsf.mb121.gz 37.08MB SAIC Generic Sensor Format (GSF)
0442_20170205_065925_EX1701_MB-EM302.gsf.mb121.gz 39.34MB SAIC Generic Sensor Format (GSF)
0443_20170205_075927_EX1701_MB-EM302.gsf.mb121.gz 43.33MB SAIC Generic Sensor Format (GSF)
0444_20170205_085928_EX1701_MB-EM302.gsf.mb121.gz 39.00MB SAIC Generic Sensor Format (GSF)
0445_20170205_095929_EX1701_MB-EM302.gsf.mb121.gz 34.97MB SAIC Generic Sensor Format (GSF)
0446_20170205_105928_EX1701_MB-EM302.gsf.mb121.gz 18.42MB SAIC Generic Sensor Format (GSF)
0447_20170205_112209_EX1701_MB-EM302.gsf.mb121.gz 14.80MB SAIC Generic Sensor Format (GSF)
0448_20170205_112652_EX1701_MB-EM302.gsf.mb121.gz 27.81MB SAIC Generic Sensor Format (GSF)
0449_20170205_122651_EX1701_MB-EM302.gsf.mb121.gz 34.00MB SAIC Generic Sensor Format (GSF)
0450_20170205_131051_EX1701_MB-EM302.gsf.mb121.gz 35.07MB SAIC Generic Sensor Format (GSF)
0451_20170205_140925_EX1701_MB-EM302.gsf.mb121.gz 39.71MB SAIC Generic Sensor Format (GSF)
0452_20170205_150927_EX1701_MB-EM302.gsf.mb121.gz 32.60MB SAIC Generic Sensor Format (GSF)
0453_20170205_160604_EX1701_MB-EM302.gsf.mb121.gz 24.48MB SAIC Generic Sensor Format (GSF)
0454_20170205_162018_EX1701_MB-EM302.gsf.mb121.gz 37.58MB SAIC Generic Sensor Format (GSF)
0455_20170205_172014_EX1701_MB-EM302.gsf.mb121.gz 32.36MB SAIC Generic Sensor Format (GSF)
0456_20170205_182032_EX1701_MB-EM302.gsf.mb121.gz 13.47MB SAIC Generic Sensor Format (GSF)
0457_20170205_182621_EX1701_MB-EM302.gsf.mb121.gz 7.28MB SAIC Generic Sensor Format (GSF)
0458_20170205_184036_EX1701_MB-EM302.gsf.mb121.gz 16.21MB SAIC Generic Sensor Format (GSF)
0459_20170205_185344_EX1701_MB-EM302.gsf.mb121.gz 29.76MB SAIC Generic Sensor Format (GSF)
0460_20170205_195347_EX1701_MB-EM302.gsf.mb121.gz 32.15MB SAIC Generic Sensor Format (GSF)
0461_20170205_203748_EX1701_MB-EM302.gsf.mb121.gz 29.79MB SAIC Generic Sensor Format (GSF)
0462_20170205_211620_EX1701_MB-EM302.gsf.mb121.gz 36.37MB SAIC Generic Sensor Format (GSF)
0463_20170205_221623_EX1701_MB-EM302.gsf.mb121.gz 38.80MB SAIC Generic Sensor Format (GSF)
0464_20170205_230809_EX1701_MB-EM302.gsf.mb121.gz 36.34MB SAIC Generic Sensor Format (GSF)
0465_20170206_000811_EX1701_MB-EM302.gsf.mb121.gz 37.18MB SAIC Generic Sensor Format (GSF)
0466_20170206_010810_EX1701_MB-EM302.gsf.mb121.gz 35.19MB SAIC Generic Sensor Format (GSF)
0467_20170206_014828_EX1701_MB-EM302.gsf.mb121.gz 38.85MB SAIC Generic Sensor Format (GSF)
0468_20170206_024828_EX1701_MB-EM302.gsf.mb121.gz 70.09MB SAIC Generic Sensor Format (GSF)
0469_20170206_034826_EX1701_MB-EM302.gsf.mb121.gz 33.73MB SAIC Generic Sensor Format (GSF)
0470_20170206_042416_EX1701_MB-EM302.gsf.mb121.gz 31.95MB SAIC Generic Sensor Format (GSF)
0471_20170206_052413_EX1701_MB-EM302.gsf.mb121.gz 29.46MB SAIC Generic Sensor Format (GSF)
0472_20170206_054730_EX1701_MB-EM302.gsf.mb121.gz 36.34MB SAIC Generic Sensor Format (GSF)
0473_20170206_064725_EX1701_MB-EM302.gsf.mb121.gz 38.97MB SAIC Generic Sensor Format (GSF)
0474_20170206_074733_EX1701_MB-EM302.gsf.mb121.gz 38.36MB SAIC Generic Sensor Format (GSF)
0475_20170206_084726_EX1701_MB-EM302.gsf.mb121.gz 38.43MB SAIC Generic Sensor Format (GSF)
0476_20170206_094725_EX1701_MB-EM302.gsf.mb121.gz 40.52MB SAIC Generic Sensor Format (GSF)
0477_20170206_104731_EX1701_MB-EM302.gsf.mb121.gz 37.87MB SAIC Generic Sensor Format (GSF)
0478_20170206_114726_EX1701_MB-EM302.gsf.mb121.gz 21.36MB SAIC Generic Sensor Format (GSF)
0479_20170206_120803_EX1701_MB-EM302.gsf.mb121.gz 21.03MB SAIC Generic Sensor Format (GSF)
0480_20170206_123019_EX1701_MB-EM302.gsf.mb121.gz 28.90MB SAIC Generic Sensor Format (GSF)
0481_20170206_133019_EX1701_MB-EM302.gsf.mb121.gz 15.62MB SAIC Generic Sensor Format (GSF)
0482_20170206_133820_EX1701_MB-EM302.gsf.mb121.gz 17.35MB SAIC Generic Sensor Format (GSF)
0483_20170206_135459_EX1701_MB-EM302.gsf.mb121.gz 26.52MB SAIC Generic Sensor Format (GSF)
0484_20170206_145457_EX1701_MB-EM302.gsf.mb121.gz 19.34MB SAIC Generic Sensor Format (GSF)
0485_20170206_150933_EX1701_MB-EM302.gsf.mb121.gz 21.95MB SAIC Generic Sensor Format (GSF)
0486_20170206_153525_EX1701_MB-EM302.gsf.mb121.gz 28.46MB SAIC Generic Sensor Format (GSF)
0487_20170206_163524_EX1701_MB-EM302.gsf.mb121.gz 17.08MB SAIC Generic Sensor Format (GSF)
0488_20170206_164448_EX1701_MB-EM302.gsf.mb121.gz 18.96MB SAIC Generic Sensor Format (GSF)
0489_20170206_170851_EX1701_MB-EM302.gsf.mb121.gz 26.54MB SAIC Generic Sensor Format (GSF)
0490_20170206_175859_EX1701_MB-EM302.gsf.mb121.gz 23.76MB SAIC Generic Sensor Format (GSF)
0491_20170206_181731_EX1701_MB-EM302.gsf.mb121.gz 32.60MB SAIC Generic Sensor Format (GSF)
0492_20170206_191005_EX1701_MB-EM302.gsf.mb121.gz 32.79MB SAIC Generic Sensor Format (GSF)
0493_20170206_200958_EX1701_MB-EM302.gsf.mb121.gz 27.70MB SAIC Generic Sensor Format (GSF)
0494_20170206_203517_EX1701_MB-EM302.gsf.mb121.gz 34.23MB SAIC Generic Sensor Format (GSF)
0495_20170206_213515_EX1701_MB-EM302.gsf.mb121.gz 39.70MB SAIC Generic Sensor Format (GSF)
0496_20170206_222614_EX1701_MB-EM302.gsf.mb121.gz 37.29MB SAIC Generic Sensor Format (GSF)
0497_20170206_232611_EX1701_MB-EM302.gsf.mb121.gz 32.33MB SAIC Generic Sensor Format (GSF)
0498_20170207_002613_EX1701_MB-EM302.gsf.mb121.gz 28.40MB SAIC Generic Sensor Format (GSF)
0499_20170207_005231_EX1701_MB-EM302.gsf.mb121.gz 36.10MB SAIC Generic Sensor Format (GSF)
0500_20170207_015230_EX1701_MB-EM302.gsf.mb121.gz 34.84MB SAIC Generic Sensor Format (GSF)
0501_20170207_025230_EX1701_MB-EM302.gsf.mb121.gz 18.62MB SAIC Generic Sensor Format (GSF)
0502_20170207_030819_EX1701_MB-EM302.gsf.mb121.gz 17.84MB SAIC Generic Sensor Format (GSF)
0503_20170207_032457_EX1701_MB-EM302.gsf.mb121.gz 27.34MB SAIC Generic Sensor Format (GSF)
0504_20170207_042056_EX1701_MB-EM302.gsf.mb121.gz 13.16MB SAIC Generic Sensor Format (GSF)
0505_20170207_043157_EX1701_MB-EM302.gsf.mb121.gz 11.87MB SAIC Generic Sensor Format (GSF)
0506_20170207_043327_EX1701_MB-EM302.gsf.mb121.gz 30.97MB SAIC Generic Sensor Format (GSF)
0507_20170207_053321_EX1701_MB-EM302.gsf.mb121.gz 39.46MB SAIC Generic Sensor Format (GSF)
0508_20170207_063318_EX1701_MB-EM302.gsf.mb121.gz 32.07MB SAIC Generic Sensor Format (GSF)
0509_20170207_073326_EX1701_MB-EM302.gsf.mb121.gz 14.13MB SAIC Generic Sensor Format (GSF)
0510_20170207_073904_EX1701_MB-EM302.gsf.mb121.gz 16.45MB SAIC Generic Sensor Format (GSF)
0511_20170207_075355_EX1701_MB-EM302.gsf.mb121.gz 29.63MB SAIC Generic Sensor Format (GSF)
0512_20170207_085349_EX1701_MB-EM302.gsf.mb121.gz 25.22MB SAIC Generic Sensor Format (GSF)
0513_20170207_090859_EX1701_MB-EM302.gsf.mb121.gz 25.23MB SAIC Generic Sensor Format (GSF)
0514_20170207_100902_EX1701_MB-EM302.gsf.mb121.gz 20.29MB SAIC Generic Sensor Format (GSF)
0515_20170207_101201_EX1701_MB-EM302.gsf.mb121.gz 31.61MB SAIC Generic Sensor Format (GSF)
0516_20170207_111204_EX1701_MB-EM302.gsf.mb121.gz 32.12MB SAIC Generic Sensor Format (GSF)
0517_20170207_121008_EX1701_MB-EM302.gsf.mb121.gz 20.72MB SAIC Generic Sensor Format (GSF)
0518_20170207_121444_EX1701_MB-EM302.gsf.mb121.gz 30.27MB SAIC Generic Sensor Format (GSF)
0519_20170207_131445_EX1701_MB-EM302.gsf.mb121.gz 38.21MB SAIC Generic Sensor Format (GSF)
0520_20170207_141328_EX1701_MB-EM302.gsf.mb121.gz 40.43MB SAIC Generic Sensor Format (GSF)
0521_20170207_151328_EX1701_MB-EM302.gsf.mb121.gz 35.14MB SAIC Generic Sensor Format (GSF)
0522_20170207_161326_EX1701_MB-EM302.gsf.mb121.gz 25.34MB SAIC Generic Sensor Format (GSF)
0523_20170207_164747_EX1701_MB-EM302.gsf.mb121.gz 21.65MB SAIC Generic Sensor Format (GSF)
0524_20170207_170436_EX1701_MB-EM302.gsf.mb121.gz 28.79MB SAIC Generic Sensor Format (GSF)
0525_20170207_180433_EX1701_MB-EM302.gsf.mb121.gz 17.82MB SAIC Generic Sensor Format (GSF)
0526_20170207_181845_EX1701_MB-EM302.gsf.mb121.gz 18.10MB SAIC Generic Sensor Format (GSF)
0527_20170207_183633_EX1701_MB-EM302.gsf.mb121.gz 32.05MB SAIC Generic Sensor Format (GSF)
0528_20170207_193633_EX1701_MB-EM302.gsf.mb121.gz 21.83MB SAIC Generic Sensor Format (GSF)
0529_20170207_200328_EX1701_MB-EM302.gsf.mb121.gz 15.97MB SAIC Generic Sensor Format (GSF)
0530_20170207_200845_EX1701_MB-EM302.gsf.mb121.gz 29.35MB SAIC Generic Sensor Format (GSF)
0531_20170207_210843_EX1701_MB-EM302.gsf.mb121.gz 30.82MB SAIC Generic Sensor Format (GSF)
0532_20170207_214347_EX1701_MB-EM302.gsf.mb121.gz 30.11MB SAIC Generic Sensor Format (GSF)
0533_20170207_223853_EX1701_MB-EM302.gsf.mb121.gz 23.75MB SAIC Generic Sensor Format (GSF)
0534_20170207_225512_EX1701_MB-EM302.gsf.mb121.gz 28.12MB SAIC Generic Sensor Format (GSF)
0535_20170207_235125_EX1701_MB-EM302.gsf.mb121.gz 23.58MB SAIC Generic Sensor Format (GSF)
0536_20170208_000349_EX1701_MB-EM302.gsf.mb121.gz 26.23MB SAIC Generic Sensor Format (GSF)
0537_20170208_010355_EX1701_MB-EM302.gsf.mb121.gz 13.90MB SAIC Generic Sensor Format (GSF)
0538_20170208_010451_EX1701_MB-EM302.gsf.mb121.gz 18.11MB SAIC Generic Sensor Format (GSF)
0539_20170208_012922_EX1701_MB-EM302.gsf.mb121.gz 30.65MB SAIC Generic Sensor Format (GSF)
0540_20170208_022923_EX1701_MB-EM302.gsf.mb121.gz 33.47MB SAIC Generic Sensor Format (GSF)
0541_20170208_031027_EX1701_MB-EM302.gsf.mb121.gz 37.57MB SAIC Generic Sensor Format (GSF)
0542_20170208_041027_EX1701_MB-EM302.gsf.mb121.gz 38.44MB SAIC Generic Sensor Format (GSF)
0543_20170208_051020_EX1701_MB-EM302.gsf.mb121.gz 39.20MB SAIC Generic Sensor Format (GSF)
0544_20170208_061021_EX1701_MB-EM302.gsf.mb121.gz 36.34MB SAIC Generic Sensor Format (GSF)
0545_20170208_071025_EX1701_MB-EM302.gsf.mb121.gz 26.10MB SAIC Generic Sensor Format (GSF)
0546_20170208_072900_EX1701_MB-EM302.gsf.mb121.gz 29.51MB SAIC Generic Sensor Format (GSF)
0547_20170208_082857_EX1701_MB-EM302.gsf.mb121.gz 24.21MB SAIC Generic Sensor Format (GSF)
0548_20170208_091150_EX1701_MB-EM302.gsf.mb121.gz 17.81MB SAIC Generic Sensor Format (GSF)
0549_20170208_091538_EX1701_MB-EM302.gsf.mb121.gz 29.13MB SAIC Generic Sensor Format (GSF)
0550_20170208_101538_EX1701_MB-EM302.gsf.mb121.gz 30.41MB SAIC Generic Sensor Format (GSF)
0551_20170208_110153_EX1701_MB-EM302.gsf.mb121.gz 24.77MB SAIC Generic Sensor Format (GSF)
0552_20170208_112234_EX1701_MB-EM302.gsf.mb121.gz 36.14MB SAIC Generic Sensor Format (GSF)
0553_20170208_122230_EX1701_MB-EM302.gsf.mb121.gz 32.38MB SAIC Generic Sensor Format (GSF)
0554_20170208_130941_EX1701_MB-EM302.gsf.mb121.gz 22.66MB SAIC Generic Sensor Format (GSF)
0555_20170208_132540_EX1701_MB-EM302.gsf.mb121.gz 35.51MB SAIC Generic Sensor Format (GSF)
0556_20170208_142537_EX1701_MB-EM302.gsf.mb121.gz 35.95MB SAIC Generic Sensor Format (GSF)
0557_20170208_152341_EX1701_MB-EM302.gsf.mb121.gz 12.99MB SAIC Generic Sensor Format (GSF)
0558_20170208_152754_EX1701_MB-EM302.gsf.mb121.gz 15.11MB SAIC Generic Sensor Format (GSF)
0559_20170208_154006_EX1701_MB-EM302.gsf.mb121.gz 32.49MB SAIC Generic Sensor Format (GSF)
0560_20170208_164009_EX1701_MB-EM302.gsf.mb121.gz 31.69MB SAIC Generic Sensor Format (GSF)
0561_20170208_172955_EX1701_MB-EM302.gsf.mb121.gz 22.85MB SAIC Generic Sensor Format (GSF)
0562_20170208_174504_EX1701_MB-EM302.gsf.mb121.gz 35.45MB SAIC Generic Sensor Format (GSF)
0563_20170208_184504_EX1701_MB-EM302.gsf.mb121.gz 36.53MB SAIC Generic Sensor Format (GSF)
0564_20170208_194506_EX1701_MB-EM302.gsf.mb121.gz 23.83MB SAIC Generic Sensor Format (GSF)
0565_20170208_200859_EX1701_MB-EM302.gsf.mb121.gz 22.34MB SAIC Generic Sensor Format (GSF)
0566_20170208_203211_EX1701_MB-EM302.gsf.mb121.gz 25.93MB SAIC Generic Sensor Format (GSF)
0567_20170208_213211_EX1701_MB-EM302.gsf.mb121.gz 23.76MB SAIC Generic Sensor Format (GSF)
0568_20170208_214530_EX1701_MB-EM302.gsf.mb121.gz 33.01MB SAIC Generic Sensor Format (GSF)
0569_20170208_224533_EX1701_MB-EM302.gsf.mb121.gz 40.64MB SAIC Generic Sensor Format (GSF)
0570_20170208_234532_EX1701_MB-EM302.gsf.mb121.gz 33.62MB SAIC Generic Sensor Format (GSF)
0571_20170209_004531_EX1701_MB-EM302.gsf.mb121.gz 26.09MB SAIC Generic Sensor Format (GSF)
0572_20170209_010512_EX1701_MB-EM302.gsf.mb121.gz 32.84MB SAIC Generic Sensor Format (GSF)
0573_20170209_020514_EX1701_MB-EM302.gsf.mb121.gz 36.07MB SAIC Generic Sensor Format (GSF)
0574_20170209_030516_EX1701_MB-EM302.gsf.mb121.gz 25.03MB SAIC Generic Sensor Format (GSF)
0575_20170209_034924_EX1701_MB-EM302.gsf.mb121.gz 16.30MB SAIC Generic Sensor Format (GSF)
0576_20170209_035255_EX1701_MB-EM302.gsf.mb121.gz 18.63MB SAIC Generic Sensor Format (GSF)
0577_20170209_044243_EX1701_MB-EM302.gsf.mb121.gz 18.81MB SAIC Generic Sensor Format (GSF)
0578_20170209_044614_EX1701_MB-EM302.gsf.mb121.gz 28.53MB SAIC Generic Sensor Format (GSF)
0579_20170209_054612_EX1701_MB-EM302.gsf.mb121.gz 33.75MB SAIC Generic Sensor Format (GSF)
0580_20170209_062526_EX1701_MB-EM302.gsf.mb121.gz 36.71MB SAIC Generic Sensor Format (GSF)
0581_20170209_072531_EX1701_MB-EM302.gsf.mb121.gz 39.91MB SAIC Generic Sensor Format (GSF)
0582_20170209_082524_EX1701_MB-EM302.gsf.mb121.gz 41.31MB SAIC Generic Sensor Format (GSF)
0583_20170209_092523_EX1701_MB-EM302.gsf.mb121.gz 40.81MB SAIC Generic Sensor Format (GSF)
0584_20170209_102527_EX1701_MB-EM302.gsf.mb121.gz 40.83MB SAIC Generic Sensor Format (GSF)
0585_20170209_112527_EX1701_MB-EM302.gsf.mb121.gz 41.37MB SAIC Generic Sensor Format (GSF)
0586_20170209_122524_EX1701_MB-EM302.gsf.mb121.gz 41.78MB SAIC Generic Sensor Format (GSF)
0587_20170209_132524_EX1701_MB-EM302.gsf.mb121.gz 39.62MB SAIC Generic Sensor Format (GSF)
0588_20170209_142534_EX1701_MB-EM302.gsf.mb121.gz 39.31MB SAIC Generic Sensor Format (GSF)
0589_20170209_152530_EX1701_MB-EM302.gsf.mb121.gz 39.72MB SAIC Generic Sensor Format (GSF)
0590_20170209_162530_EX1701_MB-EM302.gsf.mb121.gz 38.50MB SAIC Generic Sensor Format (GSF)
0591_20170209_172525_EX1701_MB-EM302.gsf.mb121.gz 38.45MB SAIC Generic Sensor Format (GSF)
0592_20170209_182532_EX1701_MB-EM302.gsf.mb121.gz 39.35MB SAIC Generic Sensor Format (GSF)
0593_20170209_192529_EX1701_MB-EM302.gsf.mb121.gz 39.19MB SAIC Generic Sensor Format (GSF)
0594_20170209_202530_EX1701_MB-EM302.gsf.mb121.gz 39.17MB SAIC Generic Sensor Format (GSF)
0595_20170209_212527_EX1701_MB-EM302.gsf.mb121.gz 33.59MB SAIC Generic Sensor Format (GSF)
0596_20170209_222528_EX1701_MB-EM302.gsf.mb121.gz 26.64MB SAIC Generic Sensor Format (GSF)
0597_20170209_225222_EX1701_MB-EM302.gsf.mb121.gz 31.20MB SAIC Generic Sensor Format (GSF)
0598_20170209_234342_EX1701_MB-EM302.gsf.mb121.gz 36.35MB SAIC Generic Sensor Format (GSF)
0599_20170210_003840_EX1701_MB-EM302.gsf.mb121.gz 31.03MB SAIC Generic Sensor Format (GSF)
0600_20170210_013839_EX1701_MB-EM302.gsf.mb121.gz 14.62MB SAIC Generic Sensor Format (GSF)
0601_20170210_014944_EX1701_MB-EM302.gsf.mb121.gz 14.07MB SAIC Generic Sensor Format (GSF)
0602_20170210_015751_EX1701_MB-EM302.gsf.mb121.gz 25.15MB SAIC Generic Sensor Format (GSF)
0603_20170210_025753_EX1701_MB-EM302.gsf.mb121.gz 17.28MB SAIC Generic Sensor Format (GSF)
0604_20170210_031624_EX1701_MB-EM302.gsf.mb121.gz 14.34MB SAIC Generic Sensor Format (GSF)
0605_20170210_032508_EX1701_MB-EM302.gsf.mb121.gz 20.39MB SAIC Generic Sensor Format (GSF)
0606_20170210_041755_EX1701_MB-EM302.gsf.mb121.gz 20.50MB SAIC Generic Sensor Format (GSF)
0607_20170210_042444_EX1701_MB-EM302.gsf.mb121.gz 26.07MB SAIC Generic Sensor Format (GSF)
0608_20170210_052449_EX1701_MB-EM302.gsf.mb121.gz 13.94MB SAIC Generic Sensor Format (GSF)
0609_20170210_053325_EX1701_MB-EM302.gsf.mb121.gz 10.32MB SAIC Generic Sensor Format (GSF)
0610_20170210_053922_EX1701_MB-EM302.gsf.mb121.gz 17.77MB SAIC Generic Sensor Format (GSF)
0611_20170210_062149_EX1701_MB-EM302.gsf.mb121.gz 17.39MB SAIC Generic Sensor Format (GSF)
0612_20170210_062910_EX1701_MB-EM302.gsf.mb121.gz 21.78MB SAIC Generic Sensor Format (GSF)
0613_20170210_071825_EX1701_MB-EM302.gsf.mb121.gz 20.40MB SAIC Generic Sensor Format (GSF)
0614_20170210_072551_EX1701_MB-EM302.gsf.mb121.gz 33.77MB SAIC Generic Sensor Format (GSF)
0615_20170210_082546_EX1701_MB-EM302.gsf.mb121.gz 39.44MB SAIC Generic Sensor Format (GSF)
0616_20170210_092549_EX1701_MB-EM302.gsf.mb121.gz 39.48MB SAIC Generic Sensor Format (GSF)
0617_20170210_102550_EX1701_MB-EM302.gsf.mb121.gz 39.45MB SAIC Generic Sensor Format (GSF)
0618_20170210_112544_EX1701_MB-EM302.gsf.mb121.gz 39.46MB SAIC Generic Sensor Format (GSF)
0619_20170210_122544_EX1701_MB-EM302.gsf.mb121.gz 39.46MB SAIC Generic Sensor Format (GSF)
0620_20170210_132550_EX1701_MB-EM302.gsf.mb121.gz 39.08MB SAIC Generic Sensor Format (GSF)
0621_20170210_142549_EX1701_MB-EM302.gsf.mb121.gz 38.44MB SAIC Generic Sensor Format (GSF)
0622_20170210_152547_EX1701_MB-EM302.gsf.mb121.gz 38.11MB SAIC Generic Sensor Format (GSF)
0623_20170210_162355_EX1701_MB-EM302.gsf.mb121.gz 38.35MB SAIC Generic Sensor Format (GSF)
0624_20170210_172349_EX1701_MB-EM302.gsf.mb121.gz 38.78MB SAIC Generic Sensor Format (GSF)
0625_20170210_182347_EX1701_MB-EM302.gsf.mb121.gz 38.80MB SAIC Generic Sensor Format (GSF)
0626_20170210_192348_EX1701_MB-EM302.gsf.mb121.gz 35.39MB SAIC Generic Sensor Format (GSF)
0627_20170210_202351_EX1701_MB-EM302.gsf.mb121.gz 31.91MB SAIC Generic Sensor Format (GSF)
0629_20170210_210235_EX1701_MB-EM302.gsf.mb121.gz 35.41MB SAIC Generic Sensor Format (GSF)
0630_20170210_220231_EX1701_MB-EM302.gsf.mb121.gz 38.81MB SAIC Generic Sensor Format (GSF)
0631_20170210_230233_EX1701_MB-EM302.gsf.mb121.gz 38.74MB SAIC Generic Sensor Format (GSF)
0632_20170211_000235_EX1701_MB-EM302.gsf.mb121.gz 39.76MB SAIC Generic Sensor Format (GSF)
0633_20170211_010240_EX1701_MB-EM302.gsf.mb121.gz 40.80MB SAIC Generic Sensor Format (GSF)
0634_20170211_020233_EX1701_MB-EM302.gsf.mb121.gz 38.94MB SAIC Generic Sensor Format (GSF)
0635_20170211_030233_EX1701_MB-EM302.gsf.mb121.gz 28.80MB SAIC Generic Sensor Format (GSF)
0636_20170211_035100_EX1701_MB-EM302.gsf.mb121.gz 17.18MB SAIC Generic Sensor Format (GSF)
0637_20170211_035614_EX1701_MB-EM302.gsf.mb121.gz 21.27MB SAIC Generic Sensor Format (GSF)
0638_20170211_044057_EX1701_MB-EM302.gsf.mb121.gz 19.19MB SAIC Generic Sensor Format (GSF)
0639_20170211_045422_EX1701_MB-EM302.gsf.mb121.gz 26.56MB SAIC Generic Sensor Format (GSF)
0640_20170211_053839_EX1701_MB-EM302.gsf.mb121.gz 26.53MB SAIC Generic Sensor Format (GSF)
0641_20170211_062223_EX1701_MB-EM302.gsf.mb121.gz 17.51MB SAIC Generic Sensor Format (GSF)
0642_20170211_062446_EX1701_MB-EM302.gsf.mb121.gz 31.05MB SAIC Generic Sensor Format (GSF)
0643_20170211_072230_EX1701_MB-EM302.gsf.mb121.gz 23.45MB SAIC Generic Sensor Format (GSF)
0644_20170211_073320_EX1701_MB-EM302.gsf.mb121.gz 33.88MB SAIC Generic Sensor Format (GSF)
0645_20170211_083315_EX1701_MB-EM302.gsf.mb121.gz 24.08MB SAIC Generic Sensor Format (GSF)
0646_20170211_085243_EX1701_MB-EM302.gsf.mb121.gz 19.26MB SAIC Generic Sensor Format (GSF)
0647_20170211_090738_EX1701_MB-EM302.gsf.mb121.gz 44.06MB SAIC Generic Sensor Format (GSF)
0648_20170211_100737_EX1701_MB-EM302.gsf.mb121.gz 23.10MB SAIC Generic Sensor Format (GSF)
0649_20170211_103415_EX1701_MB-EM302.gsf.mb121.gz 20.65MB SAIC Generic Sensor Format (GSF)
0650_20170211_105235_EX1701_MB-EM302.gsf.mb121.gz 32.09MB SAIC Generic Sensor Format (GSF)
0651_20170211_115234_EX1701_MB-EM302.gsf.mb121.gz 38.51MB SAIC Generic Sensor Format (GSF)
0652_20170211_122000_EX1701_MB-EM302.gsf.mb121.gz 16.24MB SAIC Generic Sensor Format (GSF)
0653_20170211_122352_EX1701_MB-EM302.gsf.mb121.gz 55.38MB SAIC Generic Sensor Format (GSF)
0654_20170211_132039_EX1701_MB-EM302.gsf.mb121.gz 23.54MB SAIC Generic Sensor Format (GSF)
0655_20170211_133517_EX1701_MB-EM302.gsf.mb121.gz 37.14MB SAIC Generic Sensor Format (GSF)
0656_20170211_142108_EX1701_MB-EM302.gsf.mb121.gz 44.52MB SAIC Generic Sensor Format (GSF)
0657_20170211_152106_EX1701_MB-EM302.gsf.mb121.gz 33.74MB SAIC Generic Sensor Format (GSF)
0658_20170211_160411_EX1701_MB-EM302.gsf.mb121.gz 31.96MB SAIC Generic Sensor Format (GSF)
0659_20170211_165540_EX1701_MB-EM302.gsf.mb121.gz 21.99MB SAIC Generic Sensor Format (GSF)

Products: 25

Files File Size Description
EX1701_MB_FNL_70M_WGS84_Jarvis.asc.gz 26.86MB ESRI Arc ASCII
EX1701_MB_FNL_70M_WGS84_Jarvis.kmz.gz 3.40MB Compressed Keyhole Markup Language file
EX1701_MB_FNL_70M_WGS84_Jarvis.sd.gz 47.04MB Fledermaus surface
EX1701_MB_FNL_70M_WGS84_Jarvis.tif.gz 3.96MB GeoTIFF survey image
EX1701_MB_FNL_70M_WGS84_Jarvis.xyz.gz 34.47MB xyz grid file provided by the originator
EX1701_MB_FNL_75M_WGS84_AmericanSamoa.asc.gz 77.49MB ESRI Arc ASCII
EX1701_MB_FNL_75M_WGS84_AmericanSamoa.kmz.gz 2.99MB Compressed Keyhole Markup Language file
EX1701_MB_FNL_75M_WGS84_AmericanSamoa.sd.gz 150.28MB Fledermaus surface
EX1701_MB_FNL_75M_WGS84_AmericanSamoa.tif.gz 4.78MB GeoTIFF survey image
EX1701_MB_FNL_75M_WGS84_AmericanSamoa.xyz.gz 33.48MB xyz grid file provided by the originator
EX1701_MB_FNL_75M_WGS84_PIPA.asc.gz 216.05MB ESRI Arc ASCII
EX1701_MB_FNL_75M_WGS84_PIPA.kmz.gz 9.93MB Compressed Keyhole Markup Language file
EX1701_MB_FNL_75M_WGS84_PIPA.sd.gz 415.96MB Fledermaus surface
EX1701_MB_FNL_75M_WGS84_PIPA.tif.gz 13.86MB GeoTIFF survey image
EX1701_MB_FNL_75M_WGS84_PIPA.xyz.gz 96.60MB xyz grid file provided by the originator
EX1701_MB_FNL_80M_WGS84_Transit1.asc.gz 301.33MB ESRI Arc ASCII
EX1701_MB_FNL_80M_WGS84_Transit1.kmz.gz 50.3KB Compressed Keyhole Markup Language file
EX1701_MB_FNL_80M_WGS84_Transit1.sd.gz 601.16MB Fledermaus surface
EX1701_MB_FNL_80M_WGS84_Transit1.tif.gz 11.64MB GeoTIFF survey image
EX1701_MB_FNL_80M_WGS84_Transit1.xyz.gz 51.95MB xyz grid file provided by the originator
EX1701_MB_FNL_80M_WGS84_Transit2.asc.gz 74.39MB ESRI Arc ASCII
EX1701_MB_FNL_80M_WGS84_Transit2.kmz.gz 2.66MB Compressed Keyhole Markup Language file
EX1701_MB_FNL_80M_WGS84_Transit2.sd.gz 146.25MB Fledermaus surface
EX1701_MB_FNL_80M_WGS84_Transit2.tif.gz 4.05MB GeoTIFF survey image
EX1701_MB_FNL_80M_WGS84_Transit2.xyz.gz 25.16MB xyz grid file provided by the originator

Metadata Files: 8

Files File Size Description
EX1701_COLLECTION_UNRESOLVED.xml 13.1KB XML metadata file
EX1701_MB_Acq_Field_Log.xlsx 184.0KB Provider supplied metadata
EX1701_Multibeam_COLLECTION_UNRESOLVED.xml 21.5KB XML metadata file
EX1701_Profile_COLLECTION_UNRESOLVED.xml 16.6KB XML metadata file
mb_bag_info.tar.gz 483 Bytes Additional cruise information
v1_file_metadata.tar.gz 186.2KB File level metadata
wcp_bag_info.tar.gz 5.7KB Additional cruise information
v2_file_metadata.tar.gz 215.2KB File level metadata

Ancillary Files: 3

Files File Size Description
asvp.tar.gz 295.6KB Sound Speed Profiles (SSP or SVP)
support.tar.gz 25.5KB Supporting data
xbt.tar.gz 1.42MB Expendable Bathythermograph (XBT) data

Water Column Sonar Data

Water Column Sonar Data Available: WCSD Map Viewer